GFSWCAN_prec_cthk_054.txt.gz
RH
77 82 90 88 82 90 98 89 90 98 98 84 79 98 98 99 97 93 90 88 82 85 80 73 82 77 63 59 49 46 49 39 40 45 48 46 46 41 49 53 71 73 73 75 70 77 63 41 43 40 30 34 34 38
75 82 91 94 91 87 87 90 92 86 74 81 96 98 98 99 94 92 93 87 90 93 97 84 84 96 81 61 49 48 27 29 34 36 40 40 51 50 44 52 50 61 70 69 61 53 48 48 44 44 41 39 37 41
85 83 81 87 94 92 91 86 80 75 86 95 98 98 98 98 97 95 94 95 94 94 86 88 86 82 91 79 68 46 33 25 22 21 30 28 36 35 56 49 42 48 55 67 67 57 57 56 50 48 47 42 44 42
94 84 79 89 97 98 98 98 96 98 97 98 98 98 98 99 97 95 94 95 97 89 80 83 83 77 80 81 72 46 43 30 27 25 27 31 32 22 30 27 39 38 46 47 66 61 60 57 56 54 52 50 43 38
98 94 95 98 97 98 98 97 98 98 98 98 98 98 98 97 97 99 98 97 82 71 86 87 86 84 82 84 74 51 44 40 39 39 36 34 33 34 32 30 33 36 38 49 47 49 67 64 58 61 60 55 46 35
98 99 99 98 98 99 98 98 98 98 98 98 98 97 97 97 97 93 92 79 74 60 69 91 93 92 94 89 78 62 47 54 53 59 60 44 37 36 46 38 26 28 31 35 45 53 60 64 60 59 62 60 50 45
97 98 98 97 98 97 98 98 98 97 98 98 98 96 97 96 94 77 68 61 59 61 69 80 91 83 85 94 95 79 61 53 53 60 61 63 58 48 48 42 29 31 29 37 40 46 51 57 63 65 64 63 59 54
97 95 95 97 98 98 97 97 97 98 98 97 96 96 99 90 72 68 66 61 59 75 84 98 94 94 93 97 92 83 70 70 69 63 55 52 55 59 59 39 33 39 44 43 38 38 45 54 65 66 68 68 66 60
78 89 93 88 86 86 87 89 88 84 81 82 87 82 68 67 69 73 80 80 78 80 95 95 97 95 99 90 87 83 79 73 70 68 65 61 59 56 43 36 39 44 44 45 50 54 56 61 66 64 67 70 72 71
68 63 68 76 76 80 85 86 86 87 79 65 58 66 74 77 83 83 92 96 97 92 89 80 84 84 84 89 83 92 87 89 82 70 68 63 53 50 50 49 49 51 55 51 50 59 66 69 71 72 72 74 75 78
71 68 60 57 60 67 71 68 64 64 66 67 65 71 76 82 88 90 92 90 78 76 78 84 90 98 74 87 87 82 87 92 89 88 87 75 65 60 61 59 58 56 57 65 65 60 62 65 67 72 74 76 79 81
72 71 71 60 57 56 52 52 54 55 56 57 59 59 70 84 88 88 84 77 73 78 80 83 90 93 96 94 86 80 89 88 94 97 99 94 86 82 78 72 70 70 67 62 58 57 56 60 67 73 80 85 87 88
70 73 70 68 60 61 64 67 70 77 82 80 64 67 80 80 89 81 73 73 69 77 82 82 92 96 92 84 81 84 83 95 94 97 95 90 87 88 87 87 87 89 86 80 73 73 74 83 89 88 88 91 96 97
69 72 75 70 73 73 74 81 90 95 87 89 89 93 98 87 79 69 65 65 63 71 72 72 79 81 76 72 85 86 92 97 97 91 91 92 90 89 92 97 98 98 98 95 91 93 97 99 99 99 98 99 97 95
78 84 85 86 89 90 90 93 96 93 90 96 98 97 97 97 96 88 81 76 72 73 69 69 76 78 79 87 91 91 98 96 93 94 95 96 98 98 98 98 98 98 98 98 98 95 96 98 98 97 97 97 98 97
71 79 88 89 93 93 94 96 97 95 97 97 96 97 97 97 97 97 97 97 98 95 93 97 98 94 91 91 95 95 91 92 94 93 95 96 95 96 97 97 98 98 97 96 96 97 98 97 95 97 97 97 97 97
80 80 79 84 89 92 95 93 96 96 97 97 97 97 97 97 97 97 97 98 98 98 98 97 96 96 93 91 93 93 94 95 95 94 93 94 97 97 97 97 97 97 95 95 96 96 97 97 97 97 96 97 97 97
95 93 92 91 93 96 97 96 96 96 96 97 97 97 97 97 97 97 97 98 98 96 92 93 90 90 92 92 93 95 96 97 96 97 97 97 97 97 97 97 98 97 97 97 97 97 97 97 96 97 97 97 97 97
98 98 98 98 98 96 95 95 91 93 96 96 95 95 96 95 94 94 91 89 88 86 83 84 87 91 93 93 94 96 97 97 97 98 97 97 97 97 97 97 97 97 97 97 97 96 97 97 97 97 97 96 96 97
98 99 98 97 97 94 96 96 91 91 93 93 90 87 87 87 86 84 84 83 83 82 84 88 93 96 96 97 97 97 97 97 97 97 97 97 97 97 97 97 97 97 97 97 97 97 97 97 97 97 96 96 97 97
97 97 94 91 91 90 93 96 96 94 89 81 71 64 65 64 60 62 62 68 71 82 88 94 96 96 96 97 98 98 98 98 98 98 98 98 97 97 97 97 97 97 97 97 97 98 98 98 98 97 97 97 97 97
95 85 81 79 76 73 76 74 68 63 59 58 54 47 49 50 48 47 48 45 54 62 69 74 78 84 90 93 95 97 97 97 97 97 98 97 97 97 97 98 98 97 97 98 98 97 97 96 96 95 95 95 94 92
47 46 43 38 37 42 48 46 45 44 45 43 42 40 41 41 41 41 45 49 54 57 60 62 63 64 65 69 74 76 81 90 93 95 97 98 98 98 98 97 97 96 95 94 92 89 86 84 80 76 70 62 51 42
15 16 19 25 31 38 39 41 39 38 38 39 39 43 43 43 40 43 48 51 55 59 62 63 65 65 67 68 72 73 73 77 79 78 79 78 81 81 79 78 75 73 69 65 60 54 46 38 30 24 21 19 18 19
16 25 22 26 28 31 35 38 37 35 41 41 41 43 41 40 42 46 49 52 55 56 57 57 58 59 60 60 59 55 54 53 52 50 48 46 45 41 36 32 30 28 26 24 21 19 18 18 19 21 23 24 24 24
29 32 30 31 30 31 35 38 40 42 40 43 44 42 41 42 44 49 50 54 56 58 59 61 62 63 64 64 61 53 47 42 39 38 37 35 32 30 26 23 22 19 19 20 22 24 25 25 24 24 25 26 23 23
32 34 35 35 34 33 37 38 38 39 41 43 42 41 39 43 47 49 52 54 58 58 60 61 63 63 60 53 46 43 42 41 38 35 30 25 21 20 20 22 23 25 26 27 26 25 25 24 24 23 22 22 22 22
33 33 32 33 32 31 32 32 33 36 37 38 36 39 39 39 41 46 51 54 58 61 60 58 57 51 47 46 45 45 42 37 31 25 23 22 23 25 27 28 30 31 29 28 26 25 23 22 22 22 23 23 24 25
32 29 26 29 29 30 32 34 35 35 35 35 34 36 36 38 41 46 52 55 56 56 57 55 53 51 52 52 50 45 37 29 26 26 28 31 33 33 33 33 30 27 26 25 24 23 24 24 25 25 26 26 27 29
32 30 29 31 33 36 36 35 34 33 33 32 31 35 38 42 45 48 51 53 56 58 59 61 60 60 59 53 45 36 30 28 30 32 33 32 33 33 29 26 26 27 27 26 26 27 27 28 28 29 29 30 32 33
31 31 32 36 38 40 38 35 34 33 32 34 35 38 40 44 48 50 52 54 56 58 59 59 58 54 45 36 30 26 28 31 31 32 33 32 30 28 27 28 29 29 29 29 31 32 33 33 34 34 35 36 37 37
33 35 35 38 42 43 43 42 40 40 40 41 41 41 43 47 48 49 51 53 54 53 51 48 40 31 26 25 28 31 34 34 33 32 31 30 29 28 29 31 33 35 36 37 38 39 40 40 41 42 43 44 44 44
37 36 37 40 43 44 44 45 44 45 45 45 46 46 45 45 45 44 44 44 43 41 39 34 28 31 33 34 34 35 34 34 33 31 29 30 30 31 33 34 36 37 37 38 38 39 41 42 44 45 47 48 50 51

GFSWCAN_prec_cthk_057.txt.gz
RH
93 77 86 91 84 89 96 94 80 80 76 76 83 94 95 99 94 98 97 91 87 87 82 84 80 80 73 61 65 66 66 74 62 57 51 50 58 56 52 49 57 82 82 81 72 74 69 44 43 42 36 36 44 38
67 77 90 91 90 97 72 74 72 87 90 87 87 90 87 92 97 98 99 92 88 94 93 87 87 90 89 70 55 62 68 59 50 47 45 49 62 65 57 58 53 66 63 76 67 66 57 54 48 47 50 52 52 45
72 78 88 96 88 98 79 80 90 88 89 87 90 95 87 96 98 98 97 93 93 95 90 83 77 79 91 85 87 73 78 70 58 46 50 56 62 49 64 47 42 53 54 60 69 64 65 60 54 54 52 55 58 51
91 89 96 98 86 88 96 94 91 95 97 97 91 85 96 98 98 97 95 96 96 95 95 87 82 80 88 96 85 70 73 72 69 61 54 47 45 29 44 41 34 38 45 44 44 44 46 62 59 61 63 61 58 51
97 97 98 98 86 79 79 80 79 76 76 80 86 97 96 98 98 98 98 98 95 92 92 89 79 82 85 90 95 82 70 66 61 55 44 42 34 24 30 35 36 32 40 47 48 38 40 43 55 62 65 66 62 56
98 99 97 96 91 80 78 83 93 96 98 98 99 98 98 96 94 96 99 98 97 95 87 79 78 80 81 84 94 91 67 61 64 48 46 34 25 29 41 38 25 19 23 30 33 34 36 41 51 57 64 69 66 61
98 99 97 97 97 96 96 97 97 98 98 98 97 95 95 97 97 97 95 92 92 88 82 74 72 75 79 86 88 81 71 72 72 66 57 47 33 30 37 41 21 21 25 26 30 34 36 42 49 56 63 66 64 61
98 98 98 98 98 97 97 96 97 97 96 97 98 99 98 97 98 98 89 86 89 85 77 81 89 97 79 72 69 66 61 67 71 69 65 66 65 67 68 48 30 24 27 33 36 36 33 36 36 45 51 60 67 67
96 98 98 98 96 96 94 94 95 96 97 97 97 97 97 96 96 90 74 67 68 71 65 80 96 96 97 94 90 86 83 79 65 58 56 62 65 76 71 64 52 45 41 40 40 46 44 42 43 47 50 52 55 62
86 87 92 96 96 96 96 95 94 95 95 96 97 94 95 78 66 65 76 72 62 67 72 87 96 99 99 98 98 97 92 81 74 68 72 72 64 63 64 61 50 47 44 46 45 45 44 43 48 50 63 67 66 70
73 80 85 86 87 86 86 88 88 85 81 83 80 76 75 75 75 87 87 87 85 86 83 88 93 96 98 99 92 95 86 83 82 82 74 75 71 70 72 69 64 56 55 52 50 48 50 55 61 58 61 66 74 76
59 62 75 78 76 74 74 70 71 77 79 79 77 77 87 89 89 87 87 86 88 79 78 82 86 93 95 98 99 99 98 94 90 91 97 95 86 77 75 69 63 59 56 55 59 64 65 71 73 69 67 68 70 69
51 53 60 57 60 68 69 69 68 65 65 77 75 85 92 92 92 93 92 76 80 77 78 77 82 82 84 86 96 98 96 96 99 94 92 90 89 86 87 88 90 90 87 82 78 76 78 77 75 71 70 71 72 77
48 51 54 59 60 70 78 81 78 77 67 73 80 88 96 96 92 94 95 88 83 86 82 79 85 79 76 86 98 91 92 96 96 94 93 94 92 90 87 87 91 94 96 96 93 91 92 93 90 85 84 89 94 95
57 60 61 68 81 86 86 86 89 84 82 92 89 93 96 92 84 83 81 84 84 81 85 78 80 95 96 99 97 98 97 92 85 88 93 91 90 89 90 92 92 94 94 96 97 98 98 97 96 97 95 96 97 97
69 72 78 79 85 90 94 94 94 88 90 93 93 93 86 90 89 85 80 79 84 86 96 99 98 97 91 94 91 89 85 83 87 90 94 97 98 97 96 97 97 97 98 97 97 97 97 96 96 96 97 97 97 97
83 82 82 86 89 93 96 94 93 93 96 95 96 96 95 89 80 83 82 83 81 83 87 90 87 88 85 79 86 91 92 93 96 97 97 97 97 97 97 97 97 97 97 97 97 97 97 97 97 97 96 97 97 97
75 79 84 87 90 92 91 93 94 96 96 96 96 96 96 96 95 91 89 87 84 84 90 94 95 95 96 95 95 96 97 97 97 97 97 97 97 97 97 97 96 98 97 97 97 97 97 97 97 97 97 97 97 97
95 94 95 96 97 94 95 95 92 94 96 97 97 97 97 97 97 97 97 97 97 96 95 94 95 95 96 96 96 97 97 97 97 97 97 97 97 97 97 96 97 97 97 97 97 97 97 97 97 97 97 97 97 97
97 97 97 97 94 93 94 95 92 91 90 90 88 87 88 87 89 91 92 90 88 87 90 93 96 97 97 97 97 97 97 97 97 97 97 98 97 97 97 97 98 97 97 97 97 97 97 98 98 98 97 98 98 98
98 97 95 93 91 91 94 91 81 74 74 69 68 66 69 68 66 64 64 67 69 78 84 90 92 94 95 96 96 96 97 97 97 98 97 97 97 97 97 97 97 97 98 97 98 98 98 98 98 98 97 97 97 97
92 91 88 87 86 77 67 60 55 52 49 47 43 41 42 41 40 39 41 42 51 58 61 65 67 68 70 71 73 76 80 84 87 90 94 97 98 98 98 98 98 98 98 98 98 98 96 94 95 91 91 88 82 70
67 57 56 46 36 39 41 42 40 40 41 39 38 38 37 37 37 35 40 43 49 51 53 55 56 58 60 62 63 64 65 69 73 75 76 79 86 87 88 91 94 94 93 90 86 82 75 69 60 58 52 47 42 38
33 30 27 31 34 39 38 36 34 35 36 38 36 37 38 38 38 40 44 48 51 52 53 54 56 59 60 61 61 61 63 67 68 68 66 65 66 66 64 60 57 55 53 52 48 43 38 34 31 30 29 29 28 28
26 28 26 28 32 32 36 36 37 37 40 39 40 40 39 40 40 43 45 49 52 53 53 53 53 55 57 58 56 55 55 53 51 49 47 46 45 42 35 32 27 27 28 28 28 29 29 29 29 28 28 27 25 25
28 30 31 32 32 32 32 34 36 39 38 40 40 40 41 41 41 43 44 48 50 52 54 56 57 60 61 62 60 58 54 49 43 39 33 30 32 30 29 28 29 29 29 30 30 30 29 28 27 26 25 25 24 25
32 34 33 33 33 33 35 36 36 35 37 40 40 40 38 41 42 44 45 48 51 53 57 61 63 64 63 60 55 47 41 37 33 28 23 21 20 21 23 26 26 27 28 28 29 28 27 27 26 26 26 27 27 26
34 32 33 34 32 30 32 32 32 34 35 36 35 36 36 39 40 43 45 49 52 55 59 59 58 55 52 51 51 49 40 31 25 25 29 29 27 27 28 30 29 27 25 24 22 22 21 22 22 23 24 27 25 28
35 29 24 28 28 32 34 34 34 36 35 34 33 33 33 35 38 42 46 51 55 56 56 56 54 52 53 53 50 42 32 33 35 34 38 39 38 38 32 28 26 23 23 24 23 23 24 25 26 27 28 29 32 35
31 31 27 30 34 36 37 38 35 33 32 31 30 35 36 38 41 45 48 51 53 54 56 58 59 61 59 53 42 30 27 28 30 37 37 37 36 29 25 24 25 25 25 26 28 31 31 32 34 36 36 37 37 38
33 30 31 35 38 40 37 35 34 34 33 34 36 37 39 40 44 47 49 51 51 52 55 55 54 52 42 33 31 31 32 29 29 30 31 29 27 27 26 27 28 30 30 31 32 33 33 34 37 37 39 39 41 42
32 33 32 38 40 39 39 42 42 40 39 38 37 38 39 43 44 44 44 46 47 47 47 44 40 32 25 25 28 31 33 32 31 31 29 28 27 28 29 30 31 32 32 32 32 32 33 33 34 35 36 39 41 43
38 34 34 37 41 45 44 43 42 42 41 40 41 41 42 42 42 42 42 43 45 45 44 43 38 34 33 33 33 33 33 32 31 29 29 29 30 30 30 31 31 32 32 32 32 32 32 33 34 36 39 41 43 46

GFSWCAN_prec_cthk_060.txt.gz
RH
74 67 67 75 84 93 95 95 92 84 83 86 84 91 97 98 98 98 87 98 98 92 85 92 91 92 81 72 66 56 68 78 97 94 79 59 54 48 43 46 65 74 84 95 85 89 85 61 56 53 39 35 50 46
80 77 80 84 91 96 80 82 90 92 95 96 97 91 99 98 98 98 91 91 98 98 93 92 83 85 88 84 74 71 60 67 61 91 73 61 58 49 36 53 50 68 63 65 81 74 69 63 62 56 55 56 56 58
86 92 89 88 91 78 77 82 82 86 95 97 94 92 98 98 99 95 91 93 99 97 98 93 85 82 83 86 73 78 57 72 84 73 70 59 56 50 59 50 58 62 59 66 70 65 68 78 71 63 60 60 56 59
96 97 88 82 96 86 93 95 80 74 83 89 96 97 96 97 95 88 87 94 98 97 91 83 81 81 71 75 77 74 80 65 73 76 75 73 64 41 47 41 49 55 66 71 72 64 61 65 68 71 65 65 61 62
98 90 81 79 91 90 90 88 80 81 84 89 93 95 94 95 97 99 97 95 97 88 83 87 84 87 77 74 86 81 74 84 71 89 72 58 72 61 45 45 49 48 48 60 58 43 45 45 43 45 46 47 50 60
93 76 69 72 81 91 94 95 90 91 93 96 96 94 97 95 96 99 99 99 95 91 95 97 90 78 72 74 72 80 79 77 84 87 85 67 80 61 49 42 39 37 34 32 29 26 41 45 47 44 43 48 56 66
97 91 84 81 81 82 80 80 85 88 90 93 97 96 99 99 99 95 96 93 97 92 87 84 80 76 74 76 72 76 91 91 82 89 93 76 55 42 42 45 32 29 28 39 42 39 41 44 41 36 41 51 58 62
98 99 98 96 95 97 99 95 91 97 98 99 98 98 98 98 97 96 94 93 92 88 88 87 81 73 79 84 78 77 80 91 89 87 78 63 56 49 49 36 31 30 25 25 29 35 41 39 35 33 34 47 55 60
98 98 98 98 98 96 97 97 96 96 98 98 98 98 98 98 97 93 90 90 91 94 88 79 73 86 90 90 82 77 77 95 85 75 80 83 76 76 74 64 57 57 56 51 43 35 34 41 40 38 36 38 41 48
99 98 97 96 98 99 99 99 99 99 98 97 97 97 97 96 89 85 85 88 90 90 82 76 74 91 96 93 87 82 81 85 84 73 83 92 93 88 85 80 76 73 72 67 56 55 54 57 48 43 42 44 47 52
93 97 98 98 98 98 98 99 99 99 97 96 97 97 96 90 84 88 77 70 63 66 57 60 78 91 96 94 87 78 77 82 92 80 83 82 84 77 79 78 72 68 66 61 54 53 55 53 47 49 50 53 54 60
88 88 90 93 93 94 95 96 97 98 93 92 90 91 86 88 87 87 87 86 82 76 70 72 80 95 97 91 88 86 97 97 97 93 95 96 84 74 69 69 68 66 64 63 62 60 60 57 57 59 60 62 66 71
83 79 73 72 70 72 72 72 74 76 79 82 82 77 88 87 84 85 82 82 92 96 89 96 95 97 98 98 98 99 99 97 95 96 91 84 83 80 77 78 79 77 74 71 68 66 65 63 63 66 73 76 76 82
60 63 64 66 67 68 68 64 69 76 79 78 83 84 94 82 83 85 89 90 91 92 89 97 97 98 98 99 97 98 97 99 98 96 93 91 91 93 94 98 97 94 89 88 90 91 89 86 84 83 83 87 90 91
55 68 73 77 84 88 85 77 74 74 80 87 82 84 82 83 80 83 84 84 82 83 88 92 96 96 96 97 98 98 95 92 94 95 97 97 97 97 97 97 94 93 94 95 96 97 96 97 97 98 96 96 97 97
65 82 86 91 92 95 94 87 85 85 90 91 91 94 93 82 76 75 79 75 78 79 79 87 89 93 88 85 87 85 77 87 94 95 96 97 97 96 93 91 92 95 96 97 97 97 97 97 97 97 97 96 96 97
77 79 85 92 95 96 94 92 85 89 94 96 94 89 85 83 84 76 73 73 69 74 82 93 89 91 80 73 82 85 87 92 94 96 97 96 95 95 95 96 97 97 97 97 97 97 97 96 96 96 96 96 97 97
85 84 83 86 96 97 90 87 89 93 93 96 96 91 86 85 81 81 76 74 74 73 75 79 77 79 84 85 83 85 87 92 97 97 96 96 97 97 97 97 97 97 97 97 97 97 97 97 96 96 96 97 97 97
83 86 91 95 95 95 94 91 88 94 96 94 92 94 96 95 92 90 85 79 78 76 76 82 85 88 92 90 93 95 96 96 97 97 97 97 97 97 97 97 97 97 97 97 97 97 98 97 97 97 97 97 97 97
95 96 97 94 90 91 91 90 87 89 93 95 97 96 96 96 95 94 94 93 94 94 95 95 96 97 96 97 96 96 97 97 97 97 97 97 97 97 97 97 97 97 97 97 97 98 98 97 97 97 97 97 97 97
97 95 91 88 87 84 80 72 70 71 70 68 65 62 66 66 66 67 64 66 68 71 75 78 79 80 81 81 81 83 84 86 90 92 95 96 96 97 97 97 97 97 97 98 98 98 97 97 98 98 96 95 95 93
91 90 88 83 65 52 53 51 50 49 48 48 46 45 47 46 44 41 41 40 46 52 54 56 57 59 61 62 62 62 63 63 64 65 66 69 74 77 79 82 84 88 92 94 94 93 89 89 85 79 73 65 57 48
84 76 64 47 37 37 40 40 38 41 42 40 40 39 41 42 40 40 44 47 51 55 57 58 60 60 61 62 63 64 65 66 68 71 74 75 75 75 75 74 74 72 68 63 58 52 48 45 43 43 42 41 40 37
40 37 35 34 34 38 34 36 36 37 38 37 37 39 40 40 40 41 45 51 52 53 54 55 56 58 61 63 64 64 65 68 72 73 71 66 62 58 56 52 47 42 39 36 33 32 31 31 29 28 25 26 26 26
31 32 36 33 32 31 32 33 37 35 37 36 37 39 39 38 38 41 45 50 52 54 54 55 56 58 59 60 60 58 57 55 52 50 49 50 49 46 36 31 30 29 29 29 29 29 28 27 26 26 24 19 25 24
39 34 31 32 31 31 32 35 36 38 38 39 41 40 42 39 39 42 45 48 50 52 53 55 56 57 58 59 58 58 56 53 47 40 34 30 31 31 30 30 30 30 30 29 29 29 28 27 26 26 26 26 25 26
32 33 32 32 33 31 35 37 36 35 40 40 40 40 39 40 42 46 47 48 50 51 54 56 59 61 61 57 54 47 38 33 30 29 28 26 26 27 27 30 29 29 30 30 29 28 27 27 27 27 28 29 30 30
34 34 35 35 34 31 32 31 33 39 37 37 36 37 40 41 43 44 43 46 49 52 53 56 56 55 52 50 50 49 45 37 33 35 35 35 33 33 35 33 29 27 26 23 22 21 22 24 26 28 29 34 35 35
35 29 26 31 29 32 34 35 34 35 35 37 36 35 34 36 37 39 43 46 51 53 54 53 52 52 53 51 48 39 32 35 36 35 39 41 40 38 34 30 27 23 26 29 25 26 28 28 30 31 32 36 39 39
33 31 27 30 33 35 37 37 38 38 36 31 31 35 36 37 39 42 44 47 49 51 50 51 53 55 55 51 40 29 24 25 28 34 36 37 37 31 28 26 26 27 28 29 30 34 31 31 35 36 36 33 34 33
34 30 30 34 36 39 40 39 40 39 37 38 37 36 36 37 40 42 43 44 45 46 47 48 47 45 38 29 26 27 31 27 28 30 30 29 29 28 26 27 28 29 30 30 29 30 29 29 33 36 35 34 36 37
35 32 31 37 40 42 42 45 43 42 41 39 39 37 40 40 39 37 40 41 42 44 44 44 41 36 28 28 30 31 32 31 30 30 29 27 27 28 28 29 29 29 29 29 29 29 29 29 30 33 36 37 39 41
36 33 32 35 42 44 46 46 43 43 41 40 40 40 40 38 38 38 37 40 42 44 42 42 40 34 31 30 30 31 32 31 30 29 28 28 29 29 29 29 29 30 29 29 29 30 32 33 34 35 37 38 40 41

GFSWCAN_prec_cthk_063.txt.gz
RH
94 88 79 71 71 77 81 87 89 90 91 94 95 89 81 93 98 99 91 90 99 98 72 84 80 72 74 82 84 72 78 72 66 66 60 56 57 63 68 72 78 77 82 83 93 96 91 67 62 57 52 52 52 46
94 84 80 83 86 81 85 84 83 83 87 99 96 93 91 87 92 99 96 90 89 98 93 84 75 80 82 84 83 82 72 62 63 64 64 60 57 59 60 54 58 72 59 64 66 75 72 67 70 65 65 64 62 57
98 98 94 83 76 83 80 87 86 81 91 81 97 91 92 88 88 93 86 88 98 98 99 87 74 64 82 86 82 90 76 74 64 59 69 67 73 63 69 51 40 46 49 55 54 61 59 61 69 70 72 74 68 69
91 84 79 81 81 79 81 74 77 98 86 82 93 93 92 85 95 98 88 89 90 96 95 86 78 79 83 81 88 88 78 75 77 68 74 84 86 62 58 50 45 32 35 44 56 61 70 70 64 70 71 74 69 65
74 76 84 86 84 72 68 73 87 97 99 92 97 96 97 99 98 98 96 89 92 98 82 79 80 92 86 79 76 73 73 77 82 82 87 91 87 76 64 56 52 38 30 49 56 72 79 71 70 70 65 68 65 63
79 75 76 84 83 78 80 81 88 95 98 93 88 94 98 97 98 99 99 98 96 87 86 94 93 92 84 79 73 66 64 76 80 81 85 94 74 78 79 67 45 31 31 33 42 43 56 51 37 45 50 47 55 58
87 88 82 80 79 83 86 88 88 90 92 95 92 89 91 95 95 88 81 64 90 98 94 91 90 86 85 76 72 70 66 68 78 85 94 91 87 82 67 65 62 55 44 37 46 46 39 37 32 32 47 54 42 35
96 96 91 80 84 84 90 93 91 88 89 89 89 88 98 98 93 88 84 82 88 87 89 91 93 89 85 82 77 71 68 70 69 77 84 91 76 81 77 94 76 57 49 47 53 52 43 43 51 55 50 44 44 41
97 98 97 92 91 94 94 96 96 94 96 91 96 97 98 98 97 97 93 89 88 88 87 84 84 86 84 86 84 78 73 82 69 74 79 80 89 97 92 87 76 61 51 50 54 55 51 48 44 43 41 34 32 35
97 98 98 98 98 98 97 98 98 97 97 98 96 96 98 97 94 95 97 96 94 90 84 80 78 80 81 91 88 88 80 83 77 68 79 88 98 95 88 83 77 67 61 56 57 55 48 53 55 55 50 46 42 45
96 97 97 98 98 97 97 97 97 96 94 93 91 91 91 87 89 85 81 82 81 82 79 78 78 76 85 95 95 92 96 89 81 80 87 98 97 95 90 93 86 82 79 80 79 76 78 77 71 65 62 58 56 56
98 97 96 96 96 97 95 95 93 90 89 87 84 83 85 91 91 88 89 84 77 80 78 76 70 79 86 94 89 90 94 89 84 75 85 93 89 84 87 95 93 85 81 83 83 83 79 72 68 67 69 68 65 64
89 88 91 91 92 93 93 92 90 87 87 83 86 94 89 88 87 84 82 86 96 98 89 84 88 88 93 95 89 89 85 90 85 92 94 87 83 90 93 87 81 76 74 73 74 75 74 74 77 78 75 74 72 69
62 61 64 61 60 62 67 70 74 77 79 85 89 90 85 82 84 84 84 84 89 87 88 97 95 98 99 97 89 94 90 88 98 91 85 82 87 92 95 94 95 89 85 81 80 79 80 83 82 80 76 77 78 80
81 82 86 87 84 71 72 79 79 69 75 76 77 85 83 82 80 81 81 80 81 80 90 97 97 96 98 98 95 89 95 96 97 95 91 90 89 90 94 95 96 97 97 97 97 96 95 94 95 97 98 97 96 96
93 93 93 92 91 84 80 79 78 75 81 82 82 86 83 77 73 76 78 78 80 81 89 96 97 97 97 96 97 97 91 93 96 95 96 95 96 97 97 97 97 97 97 97 97 97 97 97 97 97 97 96 97 97
93 95 95 95 92 87 85 79 75 81 88 93 95 89 83 76 74 71 71 78 77 80 85 90 92 94 83 85 92 96 97 97 97 96 96 97 97 97 97 97 97 97 97 97 97 97 97 97 97 96 96 97 96 96
93 94 97 98 97 87 83 81 81 81 93 97 94 93 89 78 74 68 70 75 73 75 79 87 80 84 90 90 90 94 92 90 90 90 92 96 97 97 97 97 97 97 96 96 96 96 97 97 97 97 96 96 96 96
88 94 97 98 96 89 83 84 82 91 93 91 93 91 88 82 80 78 75 73 76 77 78 80 86 89 90 90 90 92 94 95 96 95 97 97 97 97 97 97 97 97 97 97 97 97 97 97 97 97 96 96 96 96
95 96 97 96 94 85 85 88 88 91 96 96 94 90 89 91 91 90 90 91 88 88 88 90 92 91 92 92 92 92 92 90 90 90 91 91 92 93 94 95 95 96 97 97 97 97 97 97 97 97 96 96 96 97
95 90 85 84 78 74 79 74 75 72 74 78 82 82 84 82 78 77 74 74 71 67 67 69 70 70 69 68 67 66 66 65 65 68 69 70 74 75 76 76 76 77 79 81 84 87 91 93 94 94 93 87 78 69
88 84 71 50 42 45 47 47 46 45 46 46 43 43 45 46 45 44 47 41 47 53 54 56 58 59 61 62 63 63 64 65 67 70 73 75 75 75 76 78 80 83 84 84 80 76 70 62 55 49 44 40 37 35
82 58 42 36 33 33 38 38 37 42 43 41 38 41 43 42 41 37 43 48 53 55 56 58 60 61 62 64 65 66 69 72 74 75 76 78 81 83 83 81 76 70 64 58 53 48 45 41 39 36 35 32 30 27
42 35 36 31 30 34 31 34 34 34 33 37 37 40 42 43 38 40 49 53 54 56 57 58 57 59 60 61 63 64 66 68 68 68 67 61 55 50 47 45 43 39 37 34 32 30 30 28 24 22 23 23 24 24
29 37 35 32 30 29 33 35 36 35 40 39 39 42 42 38 43 47 48 51 53 53 53 55 55 55 56 56 55 55 54 49 51 50 49 45 42 38 35 32 29 32 32 32 30 28 26 27 25 22 21 22 23 25
39 36 37 34 32 33 34 38 36 38 38 40 41 38 40 41 44 47 47 50 49 51 52 53 53 55 57 57 54 53 51 47 37 29 28 30 29 30 31 30 27 27 29 31 30 28 25 24 25 24 22 22 24 26
42 39 35 33 32 30 34 33 31 34 41 43 40 42 40 44 48 46 46 48 48 51 53 55 56 56 54 51 46 40 36 32 29 29 29 28 28 29 29 29 29 29 29 25 25 24 23 22 24 27 29 29 30 31
37 36 36 33 31 30 32 33 34 37 37 37 34 38 41 46 44 42 43 46 48 52 54 55 55 53 52 51 50 47 43 40 37 37 37 37 36 32 30 30 28 27 25 23 21 22 25 27 27 28 29 30 31 32
34 30 25 29 27 31 34 35 35 34 35 36 36 39 39 40 39 41 43 45 48 51 50 48 48 47 48 47 42 33 32 33 32 35 36 35 36 33 29 25 24 24 23 26 27 27 28 28 29 29 29 29 29 31
34 28 26 30 34 36 36 36 37 31 30 31 33 39 40 41 42 42 44 46 47 46 44 45 47 48 48 42 30 21 18 21 25 28 32 35 32 27 25 24 25 27 27 28 28 28 28 29 30 32 31 31 31 33
32 26 27 32 36 37 36 35 34 33 34 37 37 35 36 39 42 43 43 42 41 40 42 44 45 43 36 28 27 28 31 31 30 30 30 28 26 26 26 26 28 28 28 28 28 27 27 27 28 29 31 33 34 36
30 27 28 35 40 41 42 42 41 42 44 42 42 39 39 40 39 38 38 38 39 41 42 42 39 35 31 28 28 29 30 30 30 30 29 27 27 27 28 28 28 28 28 28 28 27 27 29 31 32 34 35 35 35
32 29 31 36 43 45 45 45 43 46 47 47 44 43 41 40 38 36 36 37 38 40 40 39 38 35 30 27 28 30 30 30 29 28 28 28 28 28 29 29 29 29 28 28 28 29 31 33 34 35 36 35 35 36

GFSWCAN_prec_cthk_066.txt.gz
RH
98 98 98 97 95 94 89 73 67 70 71 72 72 74 79 79 81 93 95 98 97 98 83 85 74 67 69 70 68 61 72 69 76 79 70 59 55 55 58 60 72 80 80 81 95 97 94 72 69 70 67 61 60 56
98 98 98 98 95 88 81 79 79 79 81 82 88 91 90 91 96 93 92 88 93 99 92 93 88 73 67 61 65 68 67 67 65 71 68 63 61 60 53 59 53 65 60 83 75 72 61 59 71 66 69 69 67 63
78 85 87 87 80 79 78 78 80 83 88 93 92 92 93 95 98 99 92 88 93 98 94 99 86 75 81 71 66 65 67 69 72 71 76 72 68 60 60 63 50 43 55 68 69 55 52 51 51 55 70 78 75 71
77 88 91 88 81 75 74 72 71 70 76 83 90 96 98 96 98 99 97 88 92 86 85 76 71 79 81 78 74 74 73 83 87 84 86 79 75 60 63 64 56 41 45 45 53 48 50 51 47 52 67 72 72 79
82 88 87 82 80 75 73 77 82 81 82 99 89 86 98 99 98 94 93 92 91 83 74 86 96 86 82 82 80 75 81 89 94 95 94 87 71 67 68 74 78 66 67 69 64 53 43 45 43 51 66 69 70 66
84 83 84 81 79 80 86 94 85 67 75 80 89 99 95 98 97 96 100 99 89 86 97 98 97 91 90 87 83 87 90 88 94 90 92 87 86 77 80 81 80 80 73 72 72 62 51 39 37 48 57 61 61 63
86 84 86 87 82 87 86 89 90 86 93 93 94 93 92 92 87 90 86 73 85 95 98 99 98 94 92 88 89 88 83 81 77 76 81 81 85 87 97 90 92 85 84 78 72 62 46 42 45 45 49 47 40 43
86 88 89 87 82 81 83 81 85 91 92 94 98 98 96 93 98 98 88 84 94 96 95 94 98 93 87 88 87 84 84 83 76 71 69 79 88 93 95 93 92 85 87 79 72 64 53 47 48 52 48 48 51 50
94 94 93 89 86 79 73 76 82 92 93 94 95 98 99 97 92 90 92 97 93 90 89 85 87 92 89 90 84 82 78 76 71 77 78 81 98 98 89 89 89 84 75 67 70 67 60 56 60 61 55 56 54 56
96 96 95 93 91 89 80 78 79 94 97 98 97 96 98 99 97 94 99 98 94 89 82 85 84 88 86 89 88 87 82 77 82 80 79 91 95 92 96 87 82 84 84 86 81 69 62 64 66 69 69 68 64 59
98 97 96 96 95 93 91 90 92 94 96 95 92 97 97 96 87 84 90 86 81 79 77 76 79 80 83 83 85 81 86 91 89 88 85 90 87 84 84 87 91 93 88 88 81 72 64 60 66 77 81 79 80 83
98 98 98 96 96 95 94 91 89 88 88 85 83 88 89 87 87 83 88 84 80 89 84 83 81 77 76 78 89 93 98 98 95 94 93 88 84 92 95 93 95 96 91 86 88 82 83 89 93 92 90 92 89 83
98 98 98 98 98 97 95 94 89 81 77 81 80 79 80 79 83 86 91 90 91 85 84 79 79 75 74 85 94 96 97 98 95 97 94 86 84 82 82 83 84 84 89 90 89 89 93 94 91 89 87 86 85 84
80 82 82 87 93 93 95 93 92 84 81 78 80 81 80 81 82 83 87 90 88 89 89 85 90 93 96 97 99 97 93 91 97 97 92 82 79 78 78 81 83 85 91 89 87 89 87 85 86 84 82 84 86 88
92 91 93 73 64 70 80 81 81 78 79 79 78 81 77 74 74 78 80 85 90 95 97 98 98 98 98 97 91 91 92 88 87 89 88 86 84 82 83 84 86 88 90 90 92 94 93 92 93 94 94 93 95 95
98 98 98 93 82 90 88 83 77 76 78 79 79 80 80 75 75 73 74 79 85 96 98 97 97 97 97 94 87 87 80 85 84 89 94 94 90 88 89 90 91 92 93 93 96 96 96 96 97 97 97 97 97 96
98 98 98 94 87 85 88 82 80 82 82 83 87 83 77 75 73 73 75 79 82 86 95 95 95 96 93 96 96 95 94 95 96 97 97 97 97 96 96 96 95 96 96 96 96 96 97 97 97 97 96 97 97 97
97 98 98 97 89 80 77 83 85 91 95 93 86 80 75 72 70 73 74 74 78 77 86 89 85 90 92 92 96 96 96 96 96 96 96 96 97 97 97 97 97 96 96 96 97 97 97 97 97 98 97 97 97 97
94 98 98 93 84 84 83 85 83 90 92 86 80 76 74 76 76 75 74 73 72 74 77 84 90 92 94 94 93 90 89 90 91 92 93 93 93 94 95 95 95 96 96 95 95 96 97 97 97 97 97 97 97 97
97 98 96 94 83 84 86 91 89 85 91 90 87 85 82 81 79 77 76 79 82 82 82 78 77 78 77 76 73 72 73 75 76 77 78 78 80 80 79 78 79 80 81 83 86 89 90 90 90 90 90 90 89 87
92 85 75 75 78 78 88 91 91 91 95 95 93 92 90 88 87 86 81 73 69 69 60 65 67 68 67 67 69 70 70 71 71 72 74 75 75 75 76 78 80 83 84 85 86 86 85 84 82 76 64 55 50 45
80 61 49 45 43 49 54 57 59 64 68 71 70 64 66 64 61 58 58 51 50 57 58 62 63 64 65 65 65 67 68 71 73 75 75 76 77 79 82 83 85 85 83 79 73 66 61 56 50 46 42 39 35 31
47 40 37 28 28 33 43 43 42 47 48 46 44 46 46 43 41 39 46 52 54 56 57 58 59 60 62 62 62 62 63 63 64 65 67 69 70 70 67 64 61 58 55 51 47 43 41 40 38 33 29 26 23 20
34 32 29 27 27 35 32 34 34 34 34 38 41 45 46 42 37 41 49 52 54 55 55 54 54 55 56 56 57 58 59 57 55 53 49 45 41 42 40 38 36 35 35 34 31 28 27 25 26 24 24 23 23 22
26 34 28 30 28 27 31 33 33 32 37 36 38 43 41 35 41 47 49 50 53 53 53 53 52 52 51 51 49 48 51 52 49 45 42 39 33 30 28 29 29 30 30 28 27 25 24 24 23 23 23 23 23 24
36 36 32 32 32 31 34 34 33 36 37 41 41 39 36 38 43 48 47 48 49 51 52 52 52 53 52 52 52 48 44 39 34 33 34 34 34 33 32 29 29 30 31 31 30 28 26 23 23 23 23 26 28 28
39 40 35 33 33 29 32 31 31 32 36 37 39 42 38 41 44 43 45 47 47 49 51 53 53 51 48 44 42 41 38 34 31 30 29 30 30 30 30 30 29 28 28 27 25 23 22 23 26 28 28 27 27 27
43 37 36 32 30 28 31 31 33 35 36 36 33 38 39 42 41 44 44 45 46 49 51 52 51 48 46 45 42 41 38 34 32 32 32 32 30 29 28 27 25 24 22 21 21 24 27 28 28 27 27 27 27 27
36 31 27 27 25 29 33 34 34 34 34 36 35 38 40 42 43 44 45 45 46 45 46 45 43 41 41 40 37 30 28 27 26 29 31 31 33 29 27 25 23 23 24 28 28 28 27 28 28 28 28 28 29 31
31 27 26 31 33 36 35 32 31 31 31 29 30 36 40 44 45 44 44 45 44 42 40 39 39 41 42 35 25 21 24 32 37 37 38 38 33 28 26 25 27 28 29 28 27 28 28 27 28 29 30 31 32 33
33 28 31 34 37 37 34 31 30 29 29 31 32 34 38 45 45 44 43 41 40 39 39 39 41 39 34 27 26 28 30 30 30 30 30 29 28 27 28 28 28 28 29 28 28 28 27 28 29 31 32 34 35 35
33 31 32 36 39 40 38 38 36 38 38 38 39 39 43 43 42 40 39 39 38 38 38 38 38 35 29 29 26 27 29 30 30 30 29 28 28 28 28 29 29 29 29 29 28 27 28 30 32 34 35 36 36 36
34 32 33 37 41 42 42 43 43 45 45 46 48 49 46 43 40 37 36 36 37 38 38 38 38 36 31 27 27 28 28 29 29 29 29 29 29 29 30 30 30 30 30 28 27 28 31 34 35 36 37 37 37 39

GFSWCAN_prec_cthk_069.txt.gz
RH
98 89 85 89 95 96 90 95 97 98 93 87 85 83 85 87 91 95 92 96 93 93 93 91 87 81 83 82 81 78 83 81 83 80 78 73 70 58 49 49 60 66 71 74 79 81 66 53 56 74 86 72 70 65
90 80 86 88 94 97 98 97 96 99 98 94 88 79 76 76 82 88 90 90 94 96 92 91 87 84 83 79 83 82 75 72 71 74 70 72 69 68 60 61 55 63 63 69 70 63 49 45 47 58 81 87 77 68
90 86 93 95 88 87 92 95 95 95 94 84 78 77 73 75 76 73 82 87 93 92 92 92 84 86 83 82 82 82 78 75 74 71 73 72 69 66 69 59 55 51 48 51 58 43 56 47 42 51 63 56 57 72
83 85 85 83 79 75 73 75 81 84 85 84 84 86 84 88 86 90 85 79 89 94 95 78 81 88 87 83 84 78 76 77 77 79 80 79 75 68 68 63 66 57 55 51 49 39 42 54 49 47 57 56 60 54
84 85 79 75 80 81 89 78 72 71 78 86 90 91 92 94 98 97 88 83 85 89 92 83 85 89 93 95 90 85 85 83 84 86 85 80 75 77 78 77 68 65 68 75 73 67 59 47 49 56 60 61 60 64
87 82 75 82 86 90 91 83 65 64 76 81 89 95 97 100 99 97 99 99 98 94 92 94 86 82 82 87 92 90 91 87 80 84 84 77 86 87 94 79 79 77 69 75 76 76 82 74 73 70 59 53 51 62
88 72 67 75 80 90 92 83 72 80 83 93 98 95 98 96 87 88 79 77 92 98 96 98 93 89 82 79 86 91 87 85 84 90 93 95 93 95 98 98 89 79 71 79 84 85 80 72 75 66 58 48 47 54
88 70 64 75 88 89 88 87 87 86 90 90 91 96 96 91 94 87 85 86 88 97 97 98 94 91 96 93 97 92 95 94 92 89 83 84 82 87 98 91 89 91 87 86 97 94 90 85 76 66 63 54 52 59
91 79 65 73 81 84 86 92 96 92 94 95 93 98 99 97 96 95 94 95 95 95 98 97 90 96 96 95 94 94 92 94 88 87 82 81 87 93 83 85 89 90 90 89 94 94 91 86 85 80 71 67 70 67
95 91 77 72 85 94 97 94 96 94 94 93 91 93 98 97 90 92 98 99 99 97 85 95 91 92 89 89 93 89 86 85 83 79 80 81 86 86 86 84 91 93 94 91 92 94 87 82 78 78 76 77 78 78
97 94 92 84 85 92 98 97 93 89 89 89 86 84 94 95 91 98 98 95 89 86 82 85 83 88 87 89 88 85 86 83 81 77 82 84 82 81 82 84 82 89 90 92 95 93 92 89 85 81 83 84 77 76
98 98 97 96 94 93 94 97 96 92 94 96 93 93 99 97 94 88 88 85 86 91 89 86 83 83 86 85 84 87 85 91 91 89 91 86 81 80 81 85 83 83 90 94 93 92 86 89 88 85 80 80 79 79
98 98 98 98 97 96 95 92 91 93 93 89 82 78 79 79 80 79 82 81 82 84 80 83 86 86 83 80 84 93 91 96 98 97 94 89 87 88 85 87 88 91 91 88 89 90 89 90 90 88 85 89 90 97
94 93 92 93 95 96 88 87 84 83 79 76 75 78 75 76 76 77 76 79 79 84 84 81 82 83 82 86 98 97 96 94 97 95 92 95 96 92 86 82 83 85 84 84 86 86 89 93 92 92 91 91 91 92
93 92 84 83 86 91 92 85 78 77 74 76 75 83 81 82 83 86 86 87 85 87 89 92 91 94 97 97 95 90 89 89 85 93 96 97 96 94 92 86 86 86 86 85 88 93 95 94 94 93 93 96 96 96
98 97 93 73 73 80 79 80 79 76 75 77 76 79 78 80 80 80 86 88 93 94 98 98 97 97 97 97 89 90 87 90 91 95 96 97 97 97 92 90 89 88 90 92 94 94 96 96 94 96 95 95 92 95
98 95 93 91 91 88 78 72 69 78 77 76 81 76 76 76 77 80 86 90 93 95 97 97 97 97 96 96 96 93 93 97 98 98 98 97 97 97 94 94 97 98 96 96 94 97 97 96 96 97 95 95 94 95
98 97 94 92 84 85 83 78 73 75 80 80 78 77 74 74 75 79 80 82 85 85 92 95 91 95 98 97 97 97 97 97 97 97 97 96 96 97 97 97 96 93 95 97 97 97 97 98 97 97 97 97 95 97
98 97 92 87 85 83 82 81 71 77 80 76 73 71 71 72 75 78 76 74 73 73 80 88 93 97 98 97 97 96 96 95 95 93 92 93 93 94 94 94 94 93 93 93 93 93 93 93 94 94 94 95 95 96
98 94 91 84 79 78 76 77 73 72 73 72 71 69 74 79 80 78 75 78 85 87 81 74 77 76 75 76 74 74 75 75 75 75 76 75 77 78 81 83 84 85 86 87 87 86 86 85 85 85 84 79 71 62
89 88 88 81 77 78 79 79 72 75 75 76 76 76 77 78 82 84 84 80 68 65 60 61 62 62 62 62 63 63 65 67 69 70 74 75 78 81 84 86 87 87 87 87 87 87 87 82 73 62 56 51 48 45
66 68 71 77 77 78 81 85 84 85 85 89 92 88 87 82 75 67 57 50 49 53 52 53 54 54 54 54 56 58 60 62 63 64 65 68 71 73 75 77 78 79 79 75 69 62 57 55 52 48 44 41 37 33
38 36 39 40 43 56 72 73 70 71 67 64 57 57 54 48 43 41 42 45 49 52 52 52 52 53 53 54 54 56 57 59 61 64 65 65 65 63 60 57 52 46 43 40 39 38 36 36 34 30 28 26 24 22
27 28 27 27 30 41 39 40 38 38 38 40 41 44 41 36 33 36 46 50 51 52 52 52 53 53 54 54 54 56 56 54 50 48 47 43 40 39 37 36 34 33 32 31 29 27 28 29 29 26 25 23 23 22
25 29 26 29 28 30 34 37 36 34 38 38 41 45 41 35 41 45 47 49 50 52 52 52 53 52 50 49 50 51 53 53 50 45 41 36 32 30 29 29 29 28 30 28 27 26 26 26 25 25 24 24 25 26
34 35 31 32 31 30 32 33 32 34 35 39 39 38 34 37 41 45 47 47 49 51 50 51 51 52 51 50 48 45 43 42 39 35 34 34 35 36 34 32 32 32 31 31 30 27 26 26 26 26 27 29 29 28
37 37 34 33 30 27 30 30 30 31 34 36 38 38 37 40 41 44 47 49 49 50 50 50 50 48 45 45 41 37 34 32 30 29 30 31 31 31 31 31 31 29 26 26 25 23 23 24 27 28 28 27 26 25
37 34 34 30 27 26 29 30 32 34 35 35 34 38 38 39 41 45 47 48 48 49 50 49 47 43 40 38 37 34 31 28 27 27 28 28 26 26 27 27 25 24 22 21 22 25 28 28 27 27 26 26 25 26
34 30 24 27 27 29 32 32 34 35 34 31 32 37 38 39 41 43 47 48 48 48 48 46 43 40 37 34 30 23 21 23 26 30 32 34 33 31 28 25 24 24 26 29 29 28 28 27 28 27 27 28 29 30
29 24 25 33 34 36 35 34 33 33 31 29 30 35 39 41 43 45 46 46 44 43 41 40 38 39 39 31 23 21 24 27 28 31 32 34 32 27 26 26 27 28 29 28 28 27 27 27 26 27 29 31 32 34
26 26 31 36 39 39 34 31 30 28 28 31 32 33 37 42 44 46 45 44 43 41 40 40 40 38 34 28 26 25 27 28 28 28 28 28 27 26 27 28 28 29 29 29 28 28 27 27 28 30 32 34 36 36
27 26 33 40 43 41 37 34 33 35 36 36 38 38 40 42 44 43 42 42 42 42 40 40 39 35 31 29 26 25 27 28 28 28 28 28 28 28 28 29 30 30 30 30 29 28 28 29 32 34 36 37 37 38
32 33 37 41 44 41 39 39 39 41 41 42 44 44 45 43 42 40 40 40 41 40 39 39 37 34 32 27 28 28 28 29 29 29 29 29 29 29 30 30 31 32 33 32 30 29 31 33 35 37 37 38 39 40

GFSWCAN_prec_cthk_072.txt.gz
RH
96 98 98 91 84 84 82 89 92 90 94 97 97 98 98 98 98 98 97 99 98 98 99 98 94 94 94 90 90 86 93 93 91 90 87 83 79 68 63 60 65 78 80 81 84 80 69 45 53 58 62 63 62 58
97 93 87 86 92 97 90 92 98 94 94 98 97 96 97 98 98 98 97 99 98 98 98 98 94 94 89 82 84 88 84 82 79 82 80 77 77 77 70 73 60 63 56 58 58 50 43 44 49 52 49 50 54 57
95 87 88 88 83 84 86 87 94 99 96 98 98 97 97 98 98 98 98 99 99 99 98 98 95 96 92 89 90 89 85 81 79 74 77 75 73 73 75 70 63 62 64 68 63 41 44 39 44 48 50 50 51 54
92 82 72 77 84 85 81 79 84 97 98 98 98 98 95 93 97 98 98 98 98 98 98 94 89 94 92 91 91 88 87 86 84 85 82 79 80 74 75 68 66 66 66 60 48 45 43 37 40 51 60 53 52 67
83 68 73 80 89 94 91 91 81 80 94 98 99 99 97 93 91 91 92 91 91 88 94 89 85 83 91 93 90 90 90 89 87 91 87 83 79 77 74 73 71 70 66 70 61 63 61 54 58 57 56 63 61 72
69 68 76 79 87 92 92 82 78 76 85 98 98 99 96 91 93 94 90 78 75 81 84 87 77 80 81 89 90 91 91 93 89 91 89 85 81 83 81 71 68 71 74 74 66 64 61 61 64 67 66 63 67 76
65 75 77 80 85 88 88 76 68 70 80 96 98 98 98 98 91 81 78 74 78 83 83 80 81 75 83 91 99 98 96 96 95 98 90 83 82 83 80 74 74 81 80 81 77 72 68 70 70 77 86 88 85 80
70 78 83 89 90 86 88 89 86 85 86 96 98 98 98 98 97 87 80 81 84 87 88 84 85 86 85 97 99 98 97 96 97 91 87 87 87 83 83 80 86 89 94 96 91 87 80 77 80 84 90 92 86 83
75 85 90 97 97 86 92 96 99 99 99 97 99 99 99 99 98 90 88 93 93 97 92 95 96 99 93 94 95 95 90 98 94 90 88 91 90 87 78 79 79 88 87 91 92 90 88 88 98 92 91 89 84 78
85 85 95 92 93 93 96 97 94 96 95 98 97 98 97 97 93 92 91 96 98 97 97 97 99 98 94 93 94 94 92 92 89 90 93 92 87 80 75 74 75 81 87 90 91 91 96 98 96 94 94 90 87 86
94 87 93 95 91 91 92 97 96 98 98 97 94 87 96 95 94 94 98 98 98 99 98 98 96 94 96 91 95 92 93 91 87 83 85 80 74 73 76 73 78 81 81 88 94 91 91 91 94 91 90 88 87 88
98 95 95 97 95 95 88 89 88 88 91 92 86 87 95 97 97 97 97 93 86 90 90 89 89 89 87 87 84 85 85 87 84 85 87 77 71 75 76 75 81 83 83 85 89 90 91 92 92 90 85 89 90 88
98 98 97 97 98 97 94 97 93 91 93 93 79 74 82 88 89 87 86 81 79 86 87 85 85 86 88 86 88 91 94 96 92 93 89 86 90 89 88 88 86 85 84 87 89 88 88 89 91 90 91 91 90 90
95 94 93 97 95 95 93 88 83 82 76 71 68 75 74 79 82 83 79 79 78 81 83 84 86 88 91 90 93 93 94 95 95 96 95 94 97 96 96 97 94 90 90 96 95 91 92 88 91 93 94 95 95 95
94 91 86 89 91 90 87 81 74 70 67 68 68 78 77 77 77 77 77 78 79 80 82 84 85 86 89 88 91 96 96 93 88 87 93 97 97 97 97 97 97 92 95 94 94 94 92 92 93 93 94 97 96 96
93 91 86 81 84 85 84 81 75 68 67 69 73 78 79 81 79 80 80 82 85 89 94 95 90 91 95 95 94 94 88 88 87 91 92 93 94 96 97 97 97 97 97 95 94 95 94 95 96 95 96 97 97 97
92 91 88 69 72 75 77 75 73 74 75 80 86 89 89 89 90 89 90 89 91 96 97 97 96 97 96 95 95 96 97 96 97 97 97 97 97 97 97 98 96 96 96 96 95 94 95 96 98 98 97 97 97 97
96 96 95 89 81 71 68 70 72 73 79 77 78 81 82 82 83 82 82 86 87 91 96 96 96 96 97 96 97 97 97 97 97 97 97 97 97 98 97 97 97 98 97 97 97 96 98 98 97 97 97 97 97 97
96 94 91 86 78 71 65 66 67 73 78 76 75 74 78 79 79 78 76 77 81 81 84 90 94 96 97 97 96 97 97 97 96 93 93 93 95 96 96 96 97 97 97 98 98 98 98 98 97 98 98 97 96 92
95 93 89 85 76 68 66 67 65 66 71 71 71 70 74 77 78 81 79 81 86 85 84 84 85 81 75 74 71 72 72 73 74 76 79 81 82 83 83 85 87 87 88 88 87 87 88 88 90 88 81 73 67 64
88 84 80 74 71 67 65 62 65 65 67 65 68 69 72 74 78 78 81 82 75 60 53 53 54 53 53 54 55 56 58 61 62 63 64 65 69 72 75 76 78 80 83 86 87 87 80 69 66 61 59 57 53 50
79 74 67 64 61 60 60 63 61 62 65 70 77 77 80 85 86 78 62 45 44 50 50 52 52 53 54 54 54 55 56 59 61 63 64 65 66 68 72 75 76 75 73 67 63 59 55 53 50 45 41 38 37 35
72 71 68 69 70 71 76 76 73 77 81 86 82 74 65 59 49 37 39 42 45 48 50 51 52 53 54 54 54 54 55 56 58 60 63 63 61 57 53 50 48 44 41 39 38 37 33 32 30 26 24 24 23 22
47 52 58 62 68 76 72 70 66 64 60 58 54 50 41 34 32 36 43 46 47 48 49 50 50 51 52 52 51 51 50 49 46 45 44 43 39 38 36 34 32 29 28 27 26 25 26 26 25 23 23 22 22 23
25 30 29 34 33 34 38 40 38 36 39 38 40 41 38 33 37 41 44 47 48 49 48 49 49 49 49 49 48 47 46 45 42 39 36 33 30 29 29 30 30 30 29 29 28 27 26 26 26 26 25 27 28 29
32 33 31 32 32 31 34 35 33 34 34 36 36 34 31 34 40 44 44 45 46 47 47 48 48 47 45 44 42 41 39 36 34 31 31 32 32 32 33 33 33 32 32 30 29 27 25 25 24 25 27 28 29 27
34 35 33 31 29 27 30 30 29 30 33 35 36 34 33 38 40 43 44 45 46 47 48 47 45 43 42 40 34 30 27 25 24 24 24 24 25 26 27 29 31 30 28 27 25 23 23 24 27 29 29 28 27 26
36 33 32 30 27 26 28 29 31 32 34 33 30 34 36 37 40 43 45 47 48 48 47 46 41 38 36 35 33 30 26 22 22 24 26 27 26 27 28 28 27 26 24 22 22 25 28 28 28 27 27 27 28 29
33 30 24 27 25 27 31 32 34 35 35 30 32 37 38 39 42 44 46 47 47 48 47 45 41 38 36 34 29 23 21 24 28 30 32 33 35 31 28 27 25 25 26 29 30 29 28 28 28 28 29 29 31 32
29 24 25 29 32 36 36 36 36 34 32 30 33 38 42 43 45 46 46 46 47 46 45 43 38 39 40 32 25 22 23 25 26 28 28 29 30 27 27 27 27 28 29 30 29 29 28 28 27 27 28 31 33 34
26 24 26 31 36 38 38 36 35 32 31 33 36 39 42 45 45 45 45 44 43 42 42 41 41 41 37 30 26 26 28 29 28 28 28 28 28 27 27 28 28 29 29 30 30 30 29 28 28 29 31 34 36 36
27 25 26 34 39 40 40 38 38 39 38 38 42 42 44 43 44 45 45 45 44 43 42 41 41 39 34 29 26 28 30 31 30 29 30 30 30 29 29 29 30 30 31 31 32 32 30 29 31 33 35 36 36 37
33 28 29 31 35 37 39 40 40 41 42 44 46 45 44 43 45 44 44 44 44 43 42 41 41 38 34 28 29 31 34 35 34 33 34 33 32 32 31 31 31 32 34 35 33 30 31 33 35 35 35 36 37 38

GFSWCAN_prec_cthk_075.txt.gz
RH
98 97 93 93 88 86 83 85 88 86 81 95 95 97 98 95 90 88 84 81 79 80 84 90 90 93 95 95 95 93 98 98 96 92 89 87 82 75 70 68 78 72 73 70 74 76 69 55 63 67 66 54 53 50
98 96 91 83 74 74 78 83 90 90 84 93 97 96 98 97 93 84 80 75 80 88 93 96 96 91 88 87 93 94 87 88 87 87 85 82 83 80 73 70 65 67 70 73 63 60 56 62 61 52 46 44 44 42
98 92 71 71 69 73 79 80 84 91 93 97 98 97 98 98 98 95 87 90 95 98 98 98 98 95 97 95 93 93 91 89 85 82 82 81 78 72 78 73 68 63 57 55 53 46 44 43 52 58 57 50 46 46
93 71 65 67 70 79 85 88 83 86 92 98 98 98 98 98 98 98 98 98 99 98 99 98 97 95 92 92 93 91 93 93 93 88 85 83 80 73 74 70 67 63 61 60 58 53 50 46 51 50 48 45 44 46
74 68 72 76 79 79 88 93 85 83 91 99 98 98 98 98 98 98 98 98 99 95 96 93 89 90 90 94 93 95 96 97 96 95 94 90 86 85 81 77 72 65 62 64 59 65 63 59 60 57 56 56 52 52
73 77 79 80 82 80 90 86 90 86 86 99 98 98 98 98 98 98 98 99 98 98 95 93 84 86 85 89 93 95 96 97 98 96 94 93 90 85 83 78 71 68 69 69 69 70 67 67 67 65 61 63 65 64
82 87 88 83 78 76 75 84 80 81 90 99 98 98 98 98 98 98 96 90 94 97 93 89 84 80 77 90 90 94 95 96 97 98 97 93 91 89 84 77 72 69 68 71 74 74 71 71 71 68 66 67 73 70
93 92 92 86 83 85 87 86 78 84 97 98 98 98 98 98 98 98 90 85 88 90 88 87 82 75 69 72 80 88 98 98 98 99 98 95 96 94 82 71 68 66 71 71 70 76 77 78 77 76 74 76 81 81
92 96 89 88 88 91 94 89 84 99 99 99 99 99 99 98 97 97 96 94 88 84 79 73 73 89 83 77 82 98 99 99 98 98 98 98 95 86 73 72 70 70 69 67 74 82 87 84 86 89 87 90 89 91
90 95 92 89 89 96 97 99 98 99 97 99 98 99 99 98 95 92 94 91 86 80 81 83 84 91 90 86 92 99 95 97 98 98 97 98 90 79 73 71 70 73 74 72 76 80 88 93 94 97 94 93 98 95
96 98 95 89 89 91 90 97 97 98 99 98 97 91 98 99 97 98 92 89 86 86 86 87 86 95 94 90 97 95 97 92 92 95 95 84 73 77 79 78 77 76 74 74 75 78 88 94 97 97 97 97 97 96
98 98 98 90 84 90 93 94 95 97 90 87 88 95 95 94 91 85 90 89 88 93 92 92 95 97 97 97 96 95 95 93 88 88 90 79 72 75 73 72 72 75 79 77 79 82 84 88 94 96 98 97 98 95
98 98 99 98 90 85 87 90 92 91 85 78 74 74 79 86 85 79 82 85 89 94 92 92 92 94 98 91 94 93 90 89 86 88 84 75 74 73 78 82 84 84 86 85 83 85 88 90 93 94 92 93 97 95
95 95 98 99 96 92 88 90 80 82 72 73 75 83 78 79 79 81 80 83 83 87 89 89 88 90 89 89 92 86 90 92 91 87 81 81 89 87 91 92 96 97 97 96 93 90 90 92 92 94 92 92 92 94
92 88 93 96 92 86 83 81 77 72 65 68 69 79 77 80 79 79 80 80 80 82 85 90 89 89 90 90 91 91 92 91 87 85 88 91 90 93 96 96 95 96 96 97 96 94 97 97 97 95 93 94 94 96
90 83 81 88 89 83 82 74 66 60 60 62 67 74 76 78 80 79 79 80 82 84 87 87 89 86 88 86 84 88 86 89 89 92 96 96 97 96 97 97 97 97 98 97 97 97 97 98 98 97 97 97 97 97
89 84 80 76 81 80 75 73 67 66 67 72 79 80 81 81 80 82 83 85 89 92 95 96 94 93 96 94 95 95 93 94 94 97 97 97 97 97 97 97 98 98 97 97 97 97 97 98 98 97 97 98 97 97
91 87 79 70 73 72 73 74 74 76 83 85 85 88 90 90 87 85 84 85 88 93 95 96 95 96 96 96 96 97 97 97 97 97 97 97 97 97 98 98 98 98 98 98 97 98 98 98 98 97 97 98 97 98
90 87 79 67 65 64 66 70 71 81 79 78 81 80 80 77 77 78 78 81 84 87 90 96 95 95 95 94 93 94 93 93 92 91 90 90 88 90 93 95 97 97 98 98 98 98 98 98 98 98 97 95 86 80
90 85 82 71 62 59 64 69 68 72 73 76 77 77 77 79 82 81 81 88 86 82 79 74 70 70 69 67 64 62 63 63 63 64 65 66 70 74 76 77 78 81 85 88 88 88 90 92 90 84 79 76 72 68
88 82 74 64 59 58 61 65 67 67 67 69 72 72 71 76 83 87 89 66 51 49 49 52 52 53 53 54 54 55 57 59 62 63 65 66 68 72 75 76 76 77 81 84 87 84 75 68 66 65 62 60 59 58
77 72 65 60 57 56 61 64 61 63 63 67 71 69 78 82 73 63 52 48 46 48 49 52 53 54 55 54 55 55 55 57 59 62 64 65 66 68 72 75 76 75 71 65 60 57 53 48 43 38 33 29 28 26
65 62 61 60 59 62 70 69 66 64 67 76 82 81 71 60 50 45 44 42 46 49 51 52 53 53 54 55 55 55 56 56 57 58 60 59 56 51 46 43 41 41 40 39 39 36 33 29 27 24 23 22 21 21
56 51 51 54 56 63 62 59 59 71 80 76 67 62 48 36 32 37 44 47 49 50 52 52 52 52 54 53 52 50 47 44 41 40 39 37 35 34 33 32 31 30 29 29 30 29 28 27 26 25 25 26 26 27
55 67 65 65 62 62 68 75 72 61 57 49 42 41 38 33 37 44 47 48 49 50 51 51 51 50 49 49 49 48 46 44 41 37 33 31 29 29 30 31 32 32 33 34 33 33 32 31 30 29 29 29 30 30
44 54 50 50 50 45 43 40 38 38 36 36 36 34 31 34 39 45 44 46 48 48 48 47 47 46 45 44 43 42 38 35 33 29 28 29 29 28 28 28 29 31 32 32 32 31 30 29 29 29 30 31 31 29
33 35 33 32 31 28 31 31 29 29 32 34 33 32 30 37 42 44 46 47 47 47 48 46 45 44 42 38 34 31 28 26 24 21 20 22 23 24 25 26 27 27 27 27 26 26 26 27 29 30 31 30 27 27
33 32 30 29 26 26 28 29 30 31 33 33 28 33 35 37 43 45 47 47 49 48 47 44 41 39 36 34 31 28 25 22 22 25 27 29 28 28 29 29 28 26 25 24 24 27 29 31 31 29 29 29 28 29
32 29 24 28 26 27 29 32 33 34 35 30 30 36 38 41 45 47 48 50 50 50 48 45 43 40 37 34 27 23 23 25 28 29 30 30 31 31 28 27 26 26 27 30 31 31 30 30 30 29 28 28 29 31
30 26 26 30 33 34 34 36 37 38 35 33 34 38 41 45 48 50 50 50 51 50 49 45 42 41 37 29 23 23 24 26 28 29 29 30 30 29 28 28 28 29 30 31 31 31 31 31 30 28 28 30 32 34
29 28 29 32 34 35 35 35 36 36 36 39 39 40 43 48 49 49 49 49 49 48 45 43 42 41 34 27 24 24 26 29 31 32 32 31 31 31 30 29 29 30 31 32 32 32 32 32 30 30 32 34 36 36
31 28 28 33 35 35 35 35 36 39 41 41 43 44 46 47 49 49 50 49 47 46 46 45 42 39 32 27 25 25 28 31 33 34 36 35 34 34 33 32 32 32 32 32 32 34 34 32 32 34 36 36 36 36
36 32 31 31 33 32 32 30 31 35 39 43 46 47 46 46 49 50 49 49 48 48 47 44 43 39 31 28 28 29 31 32 34 36 38 39 39 39 39 38 37 36 35 34 34 33 33 34 36 36 36 36 37 36

GFSWCAN_prec_cthk_081.txt.gz
RH
88 91 92 93 94 93 91 86 73 69 68 76 84 92 97 98 98 99 89 87 83 90 89 73 70 67 61 88 96 95 98 95 98 98 89 82 80 74 64 63 76 73 78 74 69 74 68 54 58 56 72 79 71 67
91 91 92 89 85 74 66 69 70 72 74 73 73 78 93 95 99 99 99 94 91 95 92 76 63 71 83 89 97 96 87 95 88 85 79 80 83 75 70 72 73 87 66 69 61 60 68 75 63 76 72 64 63 61
92 91 87 84 74 71 72 73 74 74 72 70 72 78 91 94 99 98 97 97 99 98 97 76 57 64 71 82 88 98 94 91 91 87 95 92 89 75 76 69 81 72 80 80 87 77 83 78 89 80 71 67 64 59
92 86 82 79 78 76 73 73 75 78 77 80 77 74 87 95 98 99 96 96 99 97 90 66 58 57 70 80 90 93 95 96 97 99 95 91 86 75 76 75 78 72 79 67 72 77 74 80 81 81 67 59 52 47
87 84 83 79 74 71 68 69 72 80 79 80 83 75 86 95 99 99 98 98 96 86 81 66 75 69 81 81 89 96 98 98 99 98 96 89 84 85 78 81 79 75 79 75 77 81 80 79 71 65 59 56 53 53
85 86 85 77 74 68 75 86 90 90 85 85 84 81 95 99 99 98 99 93 92 90 98 95 85 78 81 88 91 97 98 98 99 97 96 84 84 90 89 85 92 86 82 80 79 80 70 64 65 62 61 62 59 58
86 88 80 78 79 77 75 87 93 95 90 88 93 97 99 98 98 95 80 75 84 95 97 94 91 83 83 90 95 98 98 98 98 99 94 90 94 89 89 90 95 89 82 77 71 69 68 66 67 68 69 68 67 66
88 81 79 88 92 85 85 91 95 95 94 98 98 98 98 99 99 97 88 82 87 92 93 95 92 94 95 96 96 96 97 98 97 98 92 85 90 95 93 88 86 87 81 77 71 68 67 68 67 65 62 62 64 64
86 77 79 91 98 87 85 92 95 98 98 98 98 98 98 99 98 96 95 97 96 97 95 92 89 98 89 93 95 98 98 97 97 96 98 90 89 96 91 88 84 82 80 77 75 73 69 68 65 63 61 60 62 65
80 77 77 81 90 94 97 97 98 97 97 97 97 98 99 98 95 97 99 98 98 97 94 88 91 93 88 91 92 93 97 98 98 94 93 96 90 89 90 86 82 80 79 77 73 69 68 68 66 65 63 62 63 66
83 79 79 85 92 97 98 98 96 95 97 94 95 96 98 99 98 98 97 94 92 91 85 88 90 92 85 87 85 81 86 86 89 91 95 95 91 90 86 83 81 83 78 72 70 69 68 67 66 66 65 67 67 70
84 82 85 87 93 97 98 97 97 98 94 87 87 96 97 98 96 94 92 92 90 94 86 85 82 83 84 91 89 77 84 90 96 96 98 92 85 82 84 83 82 82 80 73 68 68 68 67 68 69 70 72 73 78
92 83 90 93 98 98 97 99 96 94 93 91 90 95 92 88 93 91 89 85 82 76 72 75 78 80 90 96 96 96 98 97 93 97 95 91 89 86 78 75 73 72 70 68 68 70 73 74 77 82 83 83 81 83
97 90 87 91 96 98 97 98 94 90 87 87 84 86 86 82 74 72 71 70 76 77 81 88 92 96 96 90 93 91 92 90 93 89 84 80 81 80 78 76 72 73 74 75 78 80 80 88 91 92 94 93 92 91
97 98 89 87 88 94 96 91 88 83 78 78 77 76 74 76 77 82 86 86 88 89 90 90 93 97 91 88 86 87 90 85 81 78 81 81 81 79 78 80 83 86 87 91 93 94 95 95 96 96 97 96 97 97
98 94 86 88 87 85 89 89 78 70 68 74 76 79 84 86 84 84 82 84 85 86 87 86 85 85 87 83 84 85 80 80 84 87 88 88 87 88 88 90 92 94 94 95 95 96 96 97 97 97 98 98 98 98
96 97 93 87 80 77 72 68 69 73 78 76 81 82 84 80 77 77 78 80 82 86 86 85 88 91 83 84 88 88 91 92 93 94 96 96 97 96 96 96 96 95 95 96 97 98 98 98 98 98 98 98 98 98
96 87 81 80 75 71 73 73 75 75 78 79 79 79 79 78 78 77 79 82 86 86 87 90 87 87 90 91 93 96 97 97 97 97 97 94 90 86 80 77 75 75 76 78 82 87 88 89 93 96 98 98 98 98
86 82 79 74 68 65 62 63 67 70 76 80 80 79 79 78 80 84 85 86 88 90 91 90 91 91 89 79 70 65 64 64 62 61 61 61 61 63 65 68 72 76 77 79 82 87 88 88 89 91 93 95 97 93
82 77 74 72 70 69 69 73 77 77 80 82 84 84 82 81 86 89 87 87 88 89 81 68 59 55 52 53 54 53 54 55 56 56 59 61 62 65 66 68 69 73 77 78 78 83 88 88 88 88 86 84 83 77
81 77 75 79 77 78 82 83 79 79 81 81 76 80 87 86 77 75 69 67 65 58 52 50 50 50 51 52 53 53 54 54 54 56 56 59 61 63 66 68 69 70 74 77 77 79 81 79 75 70 66 63 63 63
80 73 74 73 75 77 78 73 72 73 74 77 78 81 85 80 65 57 52 51 47 49 48 48 49 50 51 51 50 50 50 52 53 55 56 58 59 61 64 66 68 67 69 69 66 60 55 52 51 49 46 44 43 41
72 67 66 67 68 71 77 75 73 72 75 73 76 80 80 65 52 46 44 42 45 48 48 48 49 49 48 48 48 47 48 51 52 53 54 54 51 48 45 43 42 45 45 42 41 40 37 33 33 37 37 36 35 33
65 64 67 68 67 71 69 67 66 68 71 79 76 69 52 40 37 39 43 45 47 48 48 48 48 48 47 47 46 45 44 42 42 42 40 39 37 34 32 32 34 34 35 36 37 37 36 36 36 39 39 40 41 41
62 64 63 62 61 60 59 60 60 64 74 72 53 39 38 36 37 40 45 46 47 47 47 48 48 47 47 47 44 44 42 41 40 37 36 32 30 28 28 29 31 31 32 33 33 33 33 34 36 39 41 43 43 43
58 57 58 57 57 55 54 61 66 70 68 43 35 34 36 34 37 45 46 46 48 49 50 50 50 49 48 47 46 44 42 37 35 33 30 28 29 33 38 37 41 39 34 36 35 35 34 34 35 36 39 38 36 39
51 52 53 54 53 54 63 69 64 52 37 32 32 32 30 34 44 46 49 49 49 51 51 50 49 50 47 45 42 36 32 28 28 26 23 24 25 28 35 38 38 36 31 30 33 33 34 34 36 38 40 41 40 35
46 52 53 54 58 63 56 47 41 35 31 30 27 30 33 38 47 49 50 50 49 48 49 49 49 47 45 41 36 32 27 25 24 24 25 26 28 29 29 29 27 26 26 26 32 30 38 40 41 40 39 38 36 35
63 58 51 50 47 45 43 36 32 32 33 32 32 35 39 43 46 48 48 48 49 49 47 46 44 42 39 37 33 31 33 34 32 29 33 38 38 38 32 34 33 31 34 35 30 31 32 33 35 38 40 39 36 35
41 41 37 40 38 36 36 35 34 34 33 32 32 39 42 44 46 46 48 50 51 52 52 49 46 47 44 39 31 29 26 25 25 29 35 37 37 35 34 37 38 33 33 38 39 40 36 37 38 38 38 38 38 39
34 35 34 34 36 38 37 35 34 35 35 35 37 38 40 42 44 44 46 49 53 54 53 50 49 45 39 35 39 33 34 25 25 25 27 28 30 34 36 37 37 38 39 39 39 41 42 42 43 41 39 40 42 40
35 33 32 34 36 37 35 36 35 36 37 37 38 38 40 40 42 43 44 50 57 59 56 55 53 48 39 33 30 28 26 26 25 26 28 31 35 38 40 42 42 43 43 43 42 40 39 37 38 42 44 43 42 38
36 36 34 36 38 38 37 37 34 37 37 37 38 38 39 39 41 41 46 57 61 59 56 54 51 46 38 34 32 29 28 26 27 28 31 35 38 40 42 43 43 43 43 42 39 39 40 41 40 40 39 39 38 38

GFSWCAN_prec_cthk_087.txt.gz
RH
28 32 46 61 82 89 91 93 93 93 95 96 97 90 86 89 94 94 95 92 85 86 79 75 72 85 93 88 89 87 91 94 97 88 81 65 64 66 72 75 93 84 85 82 73 73 69 53 55 59 71 67 65 60
29 42 54 75 91 93 93 90 89 90 90 87 83 82 79 83 88 92 94 95 92 87 82 80 78 81 89 86 90 94 98 90 98 77 66 72 81 84 91 93 93 95 77 83 75 66 74 77 72 82 75 74 80 78
36 52 67 89 94 93 90 88 87 85 81 76 73 74 75 79 84 89 93 98 98 94 89 76 66 74 77 71 83 94 98 94 98 96 90 93 90 85 97 90 92 97 90 81 78 88 86 88 94 88 87 93 85 85
48 60 82 94 95 92 89 87 84 80 77 77 77 82 82 85 81 83 93 98 99 97 94 76 73 67 67 60 76 79 85 95 95 98 97 94 96 92 94 91 88 97 94 94 96 95 92 99 97 97 91 80 71 68
55 73 93 94 91 88 88 88 83 78 77 77 78 80 82 88 87 85 86 90 97 94 93 83 74 70 70 54 52 73 80 84 89 95 95 91 89 91 91 88 98 86 97 99 98 98 98 99 96 94 90 85 81 79
66 89 93 90 90 81 80 88 97 93 86 85 88 82 83 90 94 90 85 89 94 98 97 92 88 79 61 56 45 61 62 77 86 90 92 93 92 98 97 98 93 88 94 97 98 99 98 97 93 89 84 82 78 74
86 93 89 84 73 79 93 96 92 92 89 87 95 91 91 96 87 85 82 85 95 99 97 93 83 77 59 59 53 56 73 86 93 91 91 92 91 94 98 98 98 98 97 97 95 94 92 89 86 82 80 79 77 75
95 90 81 71 79 88 87 90 90 93 97 97 96 96 97 98 95 94 98 92 96 96 93 88 87 95 59 58 59 69 85 93 94 97 95 95 92 96 94 92 93 96 96 95 96 91 89 84 82 81 79 75 72 70
95 86 68 73 85 83 86 93 92 94 97 99 99 99 98 96 93 98 96 95 93 85 85 91 90 96 85 73 72 88 96 98 98 97 94 95 98 97 96 93 93 93 93 92 90 90 88 84 81 80 79 76 70 66
93 75 75 84 85 83 81 86 93 96 97 98 99 98 96 99 97 98 99 97 95 94 94 93 88 97 95 87 91 96 97 97 97 91 96 97 96 96 96 91 89 89 88 89 91 90 88 83 81 77 76 73 70 67
85 79 85 85 88 87 86 89 95 97 98 97 98 97 98 98 98 97 96 93 87 87 86 87 96 98 99 98 98 93 96 97 97 96 97 97 95 93 92 89 88 88 88 88 88 87 84 81 79 76 72 67 65 64
84 83 91 92 92 91 92 92 94 98 96 92 88 98 98 98 92 97 90 88 84 89 92 90 98 98 96 95 97 98 96 97 98 98 99 96 91 91 91 88 87 84 84 84 84 81 77 75 74 71 69 67 64 64
88 91 95 94 92 94 95 96 97 96 97 98 95 97 98 98 98 93 93 94 92 89 91 93 96 97 93 95 95 94 96 95 93 94 92 87 93 91 89 91 91 88 87 83 78 76 73 71 68 66 66 67 68 70
94 97 96 94 98 97 96 94 96 93 92 90 90 92 92 91 90 89 85 87 88 87 88 88 94 95 96 96 98 94 93 94 94 89 88 91 92 89 87 84 81 80 79 77 75 73 72 72 72 72 72 75 79 83
98 97 93 96 98 96 95 93 92 90 82 81 81 87 87 86 89 89 88 87 89 87 86 84 83 81 86 86 83 85 85 87 86 89 91 90 88 86 85 83 80 79 79 79 79 79 80 80 81 82 87 90 92 92
94 97 95 94 96 96 95 94 88 75 78 80 81 85 86 83 85 84 84 82 79 82 82 84 88 89 88 86 83 84 84 86 86 86 87 86 86 87 88 89 89 89 87 86 86 84 84 83 83 83 82 81 78 79
88 91 93 94 95 96 92 82 76 77 79 82 85 81 75 74 76 78 78 81 81 81 82 82 85 88 86 84 86 87 91 93 95 97 97 96 95 94 88 80 74 68 64 62 63 64 64 65 66 70 74 78 78 80
86 88 90 91 94 85 82 80 78 75 80 79 81 89 89 86 85 84 84 82 80 82 81 85 83 85 92 92 94 96 93 75 72 69 62 56 53 53 52 53 55 57 60 63 66 68 69 69 71 74 78 79 79 81
88 95 89 83 83 80 80 82 78 82 88 90 86 81 80 82 81 81 79 80 83 85 85 85 90 96 97 90 65 53 51 50 50 50 50 50 52 53 55 56 58 59 62 66 68 69 69 70 73 77 78 78 78 78
87 82 81 80 77 78 81 82 80 83 89 86 83 81 80 80 78 77 78 79 81 82 88 91 76 67 56 51 49 48 46 43 43 46 48 50 54 57 58 60 59 60 62 63 64 66 66 67 71 75 77 76 70 64
81 78 79 76 80 81 78 74 78 81 81 81 81 79 80 80 80 81 83 83 86 87 68 53 50 50 48 47 45 45 46 46 47 47 49 52 53 55 56 58 58 56 55 55 59 63 65 66 65 60 53 51 49 48
87 82 79 75 74 74 74 74 77 76 78 80 82 83 85 84 84 86 87 82 74 56 46 46 47 45 44 44 44 45 47 48 50 50 50 50 51 50 48 46 44 44 44 43 43 43 42 41 40 39 39 39 39 38
80 75 72 69 68 69 79 79 79 79 82 81 79 86 80 62 56 51 50 52 50 48 46 46 45 44 44 45 45 47 47 47 47 47 45 44 43 38 33 32 33 35 36 36 33 33 32 31 35 35 37 39 40 39
69 68 72 74 75 82 82 77 74 73 76 80 84 79 63 47 40 39 46 47 47 46 46 45 45 46 47 47 46 46 45 42 41 40 40 39 33 27 26 25 26 30 34 35 34 34 34 31 34 35 36 37 40 40
69 73 75 81 79 79 75 75 76 77 78 78 82 73 48 41 43 45 45 47 48 48 47 48 47 48 47 46 44 44 44 45 41 38 36 34 29 30 32 33 33 33 34 36 36 36 35 34 34 35 37 38 39 39
72 73 76 75 75 74 73 74 75 75 75 77 73 54 40 42 42 50 46 46 47 47 46 47 47 47 48 48 48 46 43 41 39 36 31 27 27 29 32 33 34 37 38 34 34 34 34 35 34 36 37 41 43 41
73 71 67 69 71 70 72 71 70 70 68 65 58 47 39 40 47 49 49 47 46 45 46 46 46 46 47 48 49 46 39 38 37 34 27 21 20 21 24 30 33 35 36 33 33 35 35 36 38 40 42 43 42 42
65 62 66 68 67 67 71 70 68 66 60 48 41 39 40 41 46 49 47 46 44 45 44 43 44 44 46 45 43 40 37 33 32 32 29 28 28 27 26 26 29 33 36 35 35 36 37 38 39 42 43 44 45 45
59 58 55 59 58 59 63 66 66 59 53 45 39 37 37 41 43 43 44 43 42 41 40 41 42 42 40 41 45 44 42 41 41 32 30 30 30 31 31 31 33 37 38 40 43 43 41 41 41 42 44 45 44 45
56 50 49 53 60 63 67 65 57 53 50 48 40 39 38 39 42 43 42 40 38 37 37 37 37 38 41 47 44 41 38 36 32 27 29 30 30 30 31 33 36 39 41 44 45 46 46 47 46 47 48 46 45 45
49 46 48 54 62 66 64 55 50 48 46 41 36 34 36 37 39 41 41 40 39 38 38 41 44 47 52 51 46 42 42 36 28 24 23 23 24 27 29 32 37 39 39 40 41 41 40 40 40 42 45 47 47 46
54 51 53 60 63 59 55 45 43 44 39 37 36 35 36 36 39 40 41 41 41 41 42 45 46 53 56 51 46 42 38 31 26 25 24 23 25 27 29 32 37 37 36 36 36 36 36 36 37 37 38 39 39 39
61 56 51 52 53 53 51 50 45 46 43 43 43 43 41 38 39 40 41 41 41 44 47 52 59 58 52 47 45 42 34 28 26 25 24 24 25 27 29 31 34 35 36 37 35 34 34 34 36 38 40 42 44 47

GFSWCAN_prec_cthk_090.txt.gz
RH
35 35 30 27 35 47 58 83 90 91 94 96 98 98 96 91 89 94 92 93 88 80 68 49 56 53 63 74 80 74 78 82 85 86 86 78 76 66 62 56 71 78 94 92 78 70 69 46 61 77 84 81 77 81
37 36 27 30 44 53 71 89 93 93 92 94 97 99 99 95 85 86 93 93 97 92 84 75 63 53 56 73 84 86 92 96 94 94 97 86 75 73 74 76 78 90 89 92 82 73 76 69 64 70 78 81 84 85
38 28 29 39 51 62 82 92 93 91 91 93 94 93 87 82 86 84 87 96 95 94 89 82 73 73 69 73 81 78 90 98 99 99 97 94 88 86 84 84 95 98 94 94 91 96 85 89 97 87 86 94 93 85
34 29 33 48 58 73 91 94 92 91 92 91 90 89 86 80 82 84 82 86 94 94 92 83 78 69 68 73 77 73 87 94 96 96 97 89 87 85 92 95 98 97 98 99 98 98 98 97 98 99 96 94 88 91
30 31 42 53 66 87 93 92 91 91 92 90 91 91 89 89 92 90 86 80 90 95 91 85 81 70 68 66 64 67 81 87 93 89 88 87 87 89 90 96 97 97 97 97 98 96 99 98 98 98 97 95 89 84
28 35 50 60 84 91 90 88 80 79 81 87 92 90 85 89 96 95 89 80 85 98 98 92 88 79 73 69 68 57 72 86 87 83 82 87 87 91 98 95 93 96 97 98 96 98 98 98 97 94 93 92 88 82
34 50 60 84 92 88 76 83 91 94 97 98 99 98 97 98 96 94 86 74 82 88 97 96 87 83 77 72 75 56 71 79 80 80 85 88 89 98 98 97 95 97 97 97 97 98 96 96 95 91 89 87 82 76
52 62 85 92 80 73 89 90 90 92 91 92 96 99 99 99 99 95 87 83 89 98 97 93 82 84 83 75 76 61 57 68 76 82 88 91 95 95 92 92 94 94 98 97 97 97 97 95 93 87 84 81 77 74
65 88 94 78 73 86 86 83 89 86 89 93 99 99 99 99 96 98 88 97 98 98 90 81 79 86 80 79 70 63 66 76 81 87 92 94 92 89 92 95 95 95 96 96 95 96 94 89 86 86 83 77 74 71
92 95 80 78 90 87 81 81 86 84 93 98 99 99 99 99 94 95 99 98 99 95 87 83 86 90 94 89 70 70 74 86 92 92 96 95 89 88 92 92 93 91 88 85 85 87 88 85 84 83 79 74 72 72
97 83 79 88 91 86 87 84 85 91 92 99 97 96 93 94 98 98 99 97 91 83 81 86 90 94 99 96 81 76 88 97 97 96 99 94 92 93 93 92 89 86 84 84 83 81 83 82 81 80 78 75 74 74
89 83 89 93 94 93 90 85 86 88 88 86 87 91 98 99 99 94 91 89 80 79 84 86 89 92 99 99 96 93 97 98 99 99 97 95 91 93 93 91 89 88 86 85 84 84 86 84 82 80 77 75 73 73
88 87 96 94 94 95 93 91 90 90 91 92 95 98 96 93 95 90 86 84 83 83 86 88 95 98 97 97 97 98 98 98 96 97 97 92 92 91 92 89 86 85 85 83 82 82 82 82 80 80 78 76 75 74
92 98 97 97 95 96 96 94 95 96 93 93 89 89 91 89 84 78 73 71 75 82 88 90 94 95 95 96 98 95 96 96 95 89 86 89 90 90 85 83 82 81 81 79 77 76 77 78 77 77 76 77 77 78
98 99 99 98 97 98 97 95 93 87 83 85 81 85 81 80 80 80 80 80 83 87 88 88 92 90 95 93 92 87 84 88 86 85 85 87 88 87 85 84 83 82 81 80 80 80 81 80 80 80 82 84 86 87
98 98 99 99 98 97 95 91 87 79 78 80 81 84 84 88 89 87 88 89 89 89 87 86 89 88 89 85 81 82 83 83 82 83 86 87 87 87 88 89 88 82 74 69 65 63 62 62 62 64 66 68 69 72
97 97 98 98 97 94 92 84 76 78 80 80 85 85 85 87 89 88 86 82 81 82 83 80 81 85 83 81 84 83 85 89 90 90 89 88 84 71 57 51 50 51 52 53 54 56 58 61 65 67 68 70 71 74
97 97 98 98 98 91 85 78 76 75 82 84 84 82 80 80 78 76 76 80 77 75 75 81 80 83 85 85 88 89 88 72 59 54 50 48 47 48 49 50 53 54 55 56 57 58 60 63 65 67 68 69 71 74
96 96 97 97 91 82 85 83 77 80 83 81 83 85 85 83 83 82 80 80 81 81 81 83 87 90 91 89 64 50 47 45 45 46 46 47 48 49 50 51 53 54 56 57 57 56 57 60 63 65 65 67 73 75
93 95 93 88 81 80 83 81 81 81 90 88 84 82 82 81 79 77 80 81 83 83 87 89 84 77 60 43 40 40 40 40 41 43 46 47 48 49 51 51 50 50 50 50 52 54 56 59 62 65 65 64 60 59
89 87 87 83 81 80 79 80 80 85 80 79 80 79 78 76 77 77 78 80 82 90 75 56 49 45 43 41 40 39 39 40 42 43 45 47 48 48 49 49 46 42 42 43 46 46 45 45 46 46 43 41 40 41
85 81 80 79 79 79 79 81 79 78 78 79 81 81 79 79 79 81 81 85 88 58 46 44 45 44 43 42 43 44 44 47 49 47 47 46 46 45 44 42 37 36 37 38 38 37 37 36 36 37 37 34 35 37
75 73 75 79 77 74 78 83 79 76 79 80 79 80 81 78 82 82 83 78 55 44 44 44 44 44 43 45 46 47 48 48 48 47 47 45 43 40 36 30 28 29 31 32 34 33 33 33 35 36 36 37 37 38
77 80 80 75 71 78 79 77 74 75 78 80 82 79 59 54 53 51 54 50 45 45 44 43 43 44 46 47 48 48 47 45 43 42 41 39 36 33 29 26 26 28 30 32 33 34 33 31 34 35 37 37 40 42
77 78 72 71 71 76 77 75 76 75 77 80 80 63 47 41 42 43 44 44 45 44 43 43 43 45 44 43 42 42 44 44 44 41 41 38 36 33 29 29 29 30 32 35 36 37 36 34 33 35 37 40 42 43
73 72 75 79 80 81 74 73 72 73 76 78 77 63 41 38 39 43 42 41 42 42 41 41 42 43 43 43 42 43 43 45 45 41 37 38 37 31 29 29 30 32 35 37 39 39 40 39 37 37 38 41 44 45
68 69 74 79 78 74 70 71 70 70 73 74 72 63 41 39 41 43 44 42 41 41 41 43 43 42 40 41 41 40 42 45 44 42 35 33 28 24 26 29 31 34 36 38 35 40 42 42 42 42 42 43 44 46
70 71 74 73 72 71 74 74 73 72 71 67 62 53 43 36 40 44 45 41 40 40 42 41 40 40 40 41 41 38 40 44 42 38 38 37 29 27 24 23 25 28 32 36 36 39 43 45 45 45 46 46 48 48
66 66 64 69 68 70 74 74 72 70 68 59 51 46 38 38 40 42 44 42 40 38 39 37 38 39 40 37 34 38 42 44 43 40 39 33 30 29 25 25 27 30 34 38 41 43 43 42 43 44 44 46 47 46
63 55 59 61 65 68 68 67 66 63 59 53 44 42 39 39 42 45 43 41 39 38 38 38 38 38 35 35 39 45 45 45 44 42 35 29 30 26 25 27 28 31 36 39 40 40 42 42 40 39 40 41 42 44
59 54 54 56 57 60 63 64 63 60 58 53 47 42 40 39 40 43 43 42 40 37 37 36 35 36 37 40 45 48 47 44 40 34 26 26 25 24 25 27 28 31 35 37 37 37 36 35 35 36 38 40 41 41
50 47 50 55 59 63 66 62 59 57 55 50 47 41 37 37 40 40 41 41 39 36 35 38 39 41 46 54 53 51 48 43 37 29 27 26 25 25 26 27 27 29 33 37 37 37 35 34 35 36 38 41 44 46
51 50 50 54 60 63 62 59 52 50 46 44 42 41 41 40 42 41 41 41 40 39 42 45 47 54 58 54 52 50 46 39 31 29 27 26 25 26 26 26 28 31 35 37 38 37 38 40 43 45 48 51 55 58

GFSWCAN_prec_cthk_093.txt.gz
RH
40 39 35 34 34 30 27 38 49 60 78 88 92 92 95 95 95 90 87 91 85 77 68 54 38 49 52 60 65 61 60 67 70 79 75 67 67 63 63 53 57 67 76 77 78 80 72 43 35 53 83 93 89 89
41 40 38 37 36 27 30 46 54 68 85 93 95 96 96 98 98 88 90 92 95 91 82 72 49 40 45 52 59 61 69 77 86 86 86 82 80 74 71 70 63 75 80 88 82 74 79 62 61 61 69 84 90 89
44 41 39 38 32 28 39 51 61 73 90 92 94 97 97 98 99 91 86 89 94 95 92 88 76 62 48 41 53 63 76 85 92 91 98 98 89 81 76 72 76 81 92 99 96 89 87 82 76 74 77 77 81 90
48 42 40 39 29 32 46 56 67 81 94 93 94 94 96 96 95 87 85 84 92 96 94 85 81 75 69 56 53 67 76 82 97 94 95 95 92 82 80 83 87 91 92 98 98 93 96 97 95 97 96 90 85 96
44 44 41 36 29 39 49 63 74 92 97 94 95 94 94 95 94 88 83 83 88 96 92 89 84 80 72 66 66 73 80 83 88 93 96 84 85 84 88 92 91 94 97 98 98 98 97 98 99 98 98 98 96 89
47 44 41 30 31 46 58 69 87 96 95 93 93 96 94 96 97 97 93 83 83 86 93 92 89 84 75 72 73 72 77 82 86 89 89 82 84 95 97 95 97 98 95 97 98 99 98 98 98 98 97 97 94 92
50 45 31 29 40 54 68 86 96 92 85 83 85 85 86 93 95 95 89 89 87 88 89 91 89 85 79 75 77 76 65 73 90 91 86 84 93 98 97 97 97 98 98 98 98 98 97 97 96 96 94 92 89 87
48 34 32 45 60 72 88 91 81 86 96 97 97 98 98 99 99 96 89 95 94 93 90 89 85 84 84 82 85 79 72 71 88 86 86 85 90 95 95 94 93 96 97 97 97 97 94 90 89 88 87 84 84 82
36 36 53 67 80 92 83 79 90 89 87 94 99 98 99 99 98 91 98 98 98 87 83 77 83 89 88 87 82 82 73 71 74 80 77 81 84 91 90 91 93 91 95 94 91 87 86 86 86 85 81 78 77 75
40 63 74 91 92 80 91 88 77 75 85 97 99 99 99 98 97 99 99 98 92 99 93 86 84 83 83 87 82 80 77 73 82 76 78 79 83 89 90 85 87 88 88 87 86 84 82 84 82 81 82 80 78 76
73 82 97 86 88 95 86 76 72 84 89 99 99 99 97 95 99 98 98 91 96 91 87 88 83 83 89 90 83 70 74 72 74 77 91 89 85 86 89 88 86 84 84 84 83 83 82 82 83 83 83 82 79 77
94 98 84 92 94 89 79 80 77 85 86 98 83 94 96 97 98 97 93 89 88 85 80 85 84 91 93 99 92 76 87 92 90 93 96 91 87 92 93 91 88 86 84 82 82 82 82 81 80 79 80 80 80 79
98 88 95 94 96 86 82 83 84 91 93 95 92 96 96 98 96 83 84 82 83 80 78 82 90 92 97 99 96 93 89 91 91 95 93 89 92 90 89 87 86 84 82 80 79 78 78 78 78 77 77 77 78 79
91 97 96 98 97 90 85 86 87 88 95 87 90 96 93 83 76 72 71 71 73 75 83 87 94 97 96 97 96 95 94 95 95 90 86 86 87 86 82 81 82 80 78 77 76 76 76 76 76 75 75 75 75 76
97 96 97 99 98 96 88 88 87 80 76 76 74 78 77 72 74 73 72 72 75 82 88 91 92 92 94 94 92 90 93 90 82 78 77 81 82 81 80 81 81 81 81 81 79 75 70 67 65 64 64 64 65 66
97 97 98 98 98 99 95 92 84 76 74 76 76 79 79 77 78 75 76 81 81 83 84 85 90 90 94 90 87 87 78 76 75 79 80 84 87 89 90 89 84 70 59 53 51 51 52 53 54 56 58 60 62 65
98 98 99 98 98 96 91 87 80 79 78 81 86 86 87 86 81 78 79 79 83 84 87 86 87 87 82 81 79 75 77 79 86 87 75 68 63 52 47 46 46 47 48 48 50 53 55 56 58 58 59 62 63 65
99 99 98 97 95 93 92 82 78 80 85 84 87 89 90 91 89 89 90 89 86 82 78 79 76 76 79 77 79 83 87 80 57 49 47 44 42 43 44 45 46 46 47 48 50 52 54 54 55 56 58 60 63 64
98 98 98 98 98 87 85 81 79 83 85 86 87 88 89 89 87 83 80 77 76 74 73 72 78 82 84 86 75 56 45 42 41 41 42 43 44 44 44 45 46 47 48 50 51 50 51 53 55 57 58 62 65 65
97 98 98 94 85 85 86 83 81 80 83 82 82 81 80 78 77 77 76 75 76 80 84 87 89 87 83 44 36 36 37 37 40 42 42 43 44 44 45 47 48 49 49 49 46 45 48 50 51 52 52 51 49 48
98 95 91 83 83 82 83 82 81 83 89 90 88 85 83 79 76 77 81 82 84 87 89 69 57 45 36 35 35 35 37 38 38 38 40 44 45 46 46 47 47 46 43 38 37 37 38 39 39 39 37 35 34 35
92 88 84 82 80 78 80 80 84 79 79 79 80 76 72 73 75 78 79 82 89 75 55 46 40 38 36 37 38 39 38 40 42 43 44 44 45 45 44 43 44 41 37 36 36 34 32 31 33 35 34 32 31 34
88 84 82 80 78 77 84 86 78 75 78 80 76 74 74 76 76 77 83 88 65 46 44 41 40 39 40 41 41 42 44 45 45 46 47 47 46 42 40 39 36 30 29 31 31 31 31 32 34 35 35 34 34 37
83 81 80 77 77 81 82 78 73 73 76 76 75 78 74 75 77 79 83 66 46 43 42 42 41 40 41 40 40 43 45 46 45 44 45 44 41 39 38 36 30 27 30 31 33 34 35 35 36 36 36 36 37 39
74 77 76 78 72 73 77 76 76 74 75 77 78 63 60 65 65 62 56 49 45 43 42 43 41 40 39 41 42 41 39 38 37 40 44 44 42 40 40 35 29 28 29 31 34 37 38 39 39 39 39 39 42 44
80 78 75 71 70 72 71 72 71 71 73 77 70 48 41 40 40 42 42 41 42 41 40 38 37 40 42 39 36 36 36 38 39 41 44 43 44 43 41 33 31 31 32 33 35 38 41 42 42 43 43 43 44 46
74 71 69 69 73 72 69 69 68 68 73 74 70 52 38 37 38 40 40 40 40 39 38 39 40 38 36 34 34 36 37 38 41 46 45 40 39 38 32 30 32 31 32 34 36 37 41 43 44 44 44 45 46 47
67 68 76 79 77 74 72 72 73 75 76 74 73 67 45 34 37 41 42 39 39 39 40 41 40 38 35 34 35 36 35 37 43 47 43 43 42 35 27 24 23 24 26 28 32 36 40 43 45 46 45 45 45 45
63 68 72 75 72 71 74 74 74 75 75 72 70 67 55 40 38 41 41 41 41 41 39 37 36 35 34 36 37 34 33 39 46 47 45 44 40 31 26 24 24 26 28 31 35 41 42 42 42 40 40 39 40 42
67 66 67 67 69 74 75 74 75 74 72 66 60 57 49 41 41 44 43 42 41 40 37 35 35 35 36 35 33 33 39 47 49 47 45 42 34 29 26 25 26 27 29 30 33 38 41 41 40 39 39 41 42 43
67 61 64 67 68 69 73 73 71 68 64 59 54 46 42 40 42 46 46 44 42 40 38 36 36 35 33 35 36 41 48 50 48 45 41 33 28 27 25 25 26 27 28 29 31 35 38 38 37 36 37 40 42 44
63 62 62 65 65 61 59 60 63 64 65 62 59 54 47 42 42 42 43 44 43 42 40 39 36 35 39 40 46 53 54 51 48 43 35 30 28 25 24 24 24 26 28 32 32 35 39 41 42 43 44 47 50 53
54 51 51 53 55 55 58 61 64 65 62 59 56 54 50 43 41 41 44 46 44 40 37 37 41 44 46 50 56 54 52 49 45 37 32 29 26 23 23 24 26 27 29 34 38 42 45 47 49 51 52 53 55 55